Location: Crosse-Road
(79.1500°N, 11.6333°E)
Time: 00:25:56
(UTC+00:00)

Daily predictions for brighter satellites

Satellite Brightness Start Highest point End
(mag) Time Altitude Azimuth Time Altitude Azimuth Time Altitude Azimuth
SL-16 R/B 3.5 00:11:46 37° WNW 00:11:46 37° WNW 00:15:44 10° NW
ADEOS Rocket 3.4 00:14:19 84° SSE 00:14:36 88° SW 00:22:27 10° NW
Nadezhda 3 Rocket 4.2 00:09:14 10° WNW 00:15:36 67° NNE 00:21:54 10° ESE
Resurs 1-4 Rocket 3.3 00:25:24 10° NNE 00:29:43 35° ENE 00:29:43 35° ENE
ADEOS II 3.5 00:33:24 10° NNE 00:38:02 30° E 00:38:10 30° E
Cosmos 2181 Rocket 4.4 00:33:18 10° NW 00:38:06 54° NW 00:38:06 54° NW
Cosmos 2227 Rocket 4.1 00:48:26 19° ESE 00:48:26 19° ESE 00:51:39 10° ENE
Cosmos 2123 Rocket 4.2 00:50:36 63° NNW 00:50:54 63° N 00:57:04 10° ENE
Terra 4.3 00:51:41 13° NW 00:51:41 13° NW 00:53:30 10° NNW
Meteor 2-4 Rocket 4.1 00:54:08 63° NE 00:54:08 63° NE 00:59:10 10° E
Nadezhda 4 Rocket 4.1 00:56:32 73° ENE 00:56:32 73° ENE 01:02:21 10° NE
Cosmos 1655 Rocket 4.4 00:58:50 55° ESE 00:58:57 55° E 01:05:08 10° NNE
Meteor 2-5 Rocket 4.1 01:08:41 63° ENE 01:08:41 63° ENE 01:13:34 10° NE
Cosmos 1727 Rocket 4.3 01:13:01 51° NW 01:14:28 65° NNE 01:20:48 10° E
Tsikada Rocket 4.1 01:17:53 73° NNW 01:17:53 73° NNW 01:24:18 10° NE
CZ-2D R/B 2.9 01:13:48 10° NNE 01:18:42 45° E 01:18:42 45° E
Cosmos 2297 Rocket 3.9 01:20:35 23° ESE 01:20:35 23° ESE 01:24:17 10° ENE
Cosmos 2266 Rocket 4.3 01:22:24 57° ESE 01:22:47 58° ESE 01:29:04 10° NNE
Meteor 1-24 Rocket 4.0 01:28:05 67° ENE 01:28:05 67° ENE 01:33:05 10° NE
SJ 16-02 4.2 01:27:46 10° ESE 01:28:58 11° E 01:30:10 10° ENE
CZ-2C R/B 3.2 01:25:49 10° E 01:29:51 51° E 01:29:51 51° E
Cosmos 1092 Rocket 4.0 01:33:16 81° E 01:33:16 81° E 01:39:24 10° NE
Cosmos 1066 Rocket 4.4 01:33:54 71° NNE 01:33:54 71° NNE 01:39:28 10° E
Meteor 2-13 Rocket 4.4 01:34:44 77° ENE 01:34:44 77° ENE 01:40:23 10° NE
Thor Agena Rocket 4.1 01:34:14 10° NE 01:38:09 54° ENE 01:38:09 54° ENE
Meteor 1-21 4.4 01:41:45 72° NNE 01:41:45 72° NNE 01:47:12 10° ENE
ARIANE 5 R/B 3.9 01:38:58 10° NNE 01:43:38 33° E 01:44:43 30° ESE
Cosmos 2026 Rocket 3.9 01:44:30 79° ENE 01:44:30 79° ENE 01:50:19 10° NE
Meteor 1-18 Rocket 4.4 01:45:05 68° E 01:45:05 68° E 01:50:08 10° ESE
Cosmos 2082 Rocket 4.3 01:52:00 15° SE 01:52:00 15° SE 01:53:00 10° SE
Meteor 2-19 Rocket 4.5 01:49:05 73° ESE 01:49:05 73° ESE 01:55:06 10° NE
IDEFIX/ARIANE 42P 3.8 01:45:54 10° NNE 01:50:40 35° E 01:51:44 32° ESE
ASTEX 1 4.4 01:49:30 10° NNE 01:53:01 41° N 01:53:01 41° N
SL-16 R/B 3.9 01:56:52 26° NW 01:56:52 26° NW 02:00:05 10° NNW
SME Rocket 4.3 01:51:31 10° E 01:57:08 84° N 01:58:44 59° WNW
Cosmos 2195 Rocket 4.4 01:58:23 86° ENE 01:58:23 86° ENE 02:04:33 10° NE
Helios 1B rocket 4.0 01:56:25 10° NE 01:58:49 33° NE 01:58:49 33° NE
ADEOS Rocket 3.5 02:01:17 63° W 02:01:17 63° W 02:08:21 10° NNW
Nadezhda 3 Rocket 3.9 01:55:08 10° NW 02:01:32 86° NE 02:07:52 10° SE
MOS 1 Rocket 4.2 02:01:18 10° ESE 02:05:04 48° ESE 02:05:04 48° ESE
Resurs 1-4 Rocket 2.5 02:05:44 10° NE 02:10:47 59° ESE 02:10:47 59° ESE
ADEOS II 2.6 02:13:39 10° NNE 02:18:48 50° ESE 02:19:06 50° ESE
Cosmos 1975 Rocket 4.1 02:21:17 45° NE 02:21:17 45° NE 02:24:44 10° ENE
CZ-4B R/B 4.3 02:15:37 10° NE 02:20:18 43° ESE 02:20:26 43° ESE
CZ-4 R/B 4.3 02:18:53 10° NE 02:23:02 63° ENE 02:23:02 63° ENE
Meteor 1-11 4.4 02:25:02 64° SE 02:25:17 65° ESE 02:31:04 10° NE
Cosmos 1626 4.2 02:27:31 27° NE 02:27:31 27° NE 02:29:21 10° NE
Cosmos 1627 Rocket 4.3 02:27:01 85° WNW 02:27:07 85° NW 02:33:17 10° NE
Meteor 1-13 Rocket 4.2 02:27:47 75° N 02:27:58 76° NNE 02:33:38 10° ESE
Cosmos 2227 Rocket 3.5 02:30:15 29° SE 02:30:24 29° SE 02:35:12 10° E
Cosmos 1707 4.4 02:35:35 33° NE 02:35:35 33° NE 02:38:00 10° ENE
Okean 1-7 4.3 02:36:05 36° E 02:36:05 36° E 02:38:47 10° ESE
ALOS 4.4 02:31:13 10° NNE 02:35:08 25° E 02:39:02 10° SE
Meteor 2-4 Rocket 3.8 02:36:13 75° NNW 02:36:43 82° NNE 02:42:35 10° ESE
In-Cosmos 22 4.2 02:36:54 75° NNW 02:37:00 75° NNW 02:42:46 10° ENE
Cosmos 2123 Rocket 4.2 02:35:17 47° NW 02:37:01 67° NNE 02:43:13 10° ESE
Cosmos 1825 4.0 02:38:20 30° ENE 02:38:20 30° ENE 02:40:42 10° NE
IRS-1D 3.9 02:33:54 10° NE 02:38:49 54° ESE 02:38:54 54° ESE
Meteor 1-23 Rocket 4.3 02:39:35 70° NNW 02:40:05 75° NNE 02:45:56 10° E
Nadezhda 4 Rocket 3.9 02:41:06 71° WNW 02:41:33 74° NNW 02:47:56 10° NE
Meteor 1-21 Rocket 4.2 02:42:55 83° SE 02:42:55 83° SE 02:48:38 10° NE
Cosmos 2221 Rocket 4.3 02:44:08 52° ENE 02:44:08 52° ENE 02:47:51 10° E
Cosmos 1378 Rocket 4.4 02:44:16 50° NE 02:44:16 50° NE 02:47:59 10° E
Cosmos 1655 Rocket 3.9 02:43:46 73° SSW 02:44:25 85° SE 02:50:49 10° NE
Cosmos 1953 Rocket 4.2 02:49:56 55° ENE 02:49:56 55° ENE 02:53:34 10° NE
Meteor 2-5 Rocket 3.7 02:51:10 79° NW 02:51:21 80° NNW 02:57:11 10° ENE
Cosmos 1076 Rocket 4.4 02:52:00 46° E 02:52:00 46° E 02:55:50 10° NNE
Cosmos 2219 4.3 02:51:45 32° SSE 02:52:02 33° SSE 02:57:05 10° E
Cosmos 1428 Rocket 4.3 02:53:11 77° W 02:53:33 80° NW 02:59:48 10° NE
DMSP B5D2-2 4.0 02:50:15 10° ESE 02:55:19 82° E 02:55:19 82° E
Cosmos 1809 Rocket 4.3 02:55:39 70° S 02:56:20 80° ESE 03:02:27 10° NE
NPP 3.7 02:52:07 10° NE 02:57:33 70° SE 02:57:50 68° SSE
CZ-2C R/B 3.8 02:53:43 10° NNE 02:57:56 33° E 03:00:12 21° SE
Cosmos 1825 Rocket 4.2 03:00:44 52° NE 03:00:44 52° NE 03:04:05 10° NE
CZ-2D R/B 2.2 02:54:19 10° NE 02:59:46 74° SE 03:00:01 72° SSE
Cosmos 1140 Rocket 4.2 03:00:51 44° SE 03:00:51 44° SE 03:04:54 10° ESE
Cosmos 1727 Rocket 4.0 02:57:45 37° NW 03:00:29 81° NE 03:06:52 10° SE
Okean 1-7 Rocket 4.3 03:02:26 51° NNE 03:02:26 51° NNE 03:05:53 10° NE
Cosmos 2058 3.8 03:02:19 47° ENE 03:02:19 47° ENE 03:05:41 10° NE
Cosmos 1339 Rocket 4.5 02:57:59 28° NW 03:01:36 89° ENE 03:08:04 10° SE
Cosmos 407 Rocket 4.2 03:03:14 45° SSE 03:03:14 45° SSE 03:07:29 10° ESE
Cosmos 1346 Rocket 4.0 03:03:25 42° ENE 03:03:25 42° ENE 03:06:24 10° NE
Cosmos 2297 Rocket 3.3 03:02:23 32° SSE 03:02:44 32° SSE 03:07:43 10° E
AQUA 4.0 02:58:20 10° NE 03:02:52 68° E 03:02:52 68° E
Tsikada Rocket 4.3 03:02:44 53° NW 03:04:03 64° N 03:10:28 10° ENE
Cosmos 1674 Rocket 4.2 03:06:01 54° NE 03:06:01 54° NE 03:09:47 10° E
SJ 16-02 3.6 03:04:12 15° SE 03:06:08 20° ESE 03:09:22 10° ENE
Cosmos 1703 Rocket 4.4 03:07:38 44° ESE 03:07:38 44° ESE 03:10:41 10° ESE
Nimbus 7 Rocket 4.2 03:01:00 10° ENE 03:06:59 82° NNW 03:07:31 74° W
Cosmos 2266 Rocket 3.9 03:06:59 67° SSW 03:07:57 88° SE 03:14:26 10° NE
Cosmos 1703 4.5 03:10:37 40° NE 03:10:37 40° NE 03:13:16 10° NE
Cosmos 2263 Rocket 4.1 03:07:41 17° SSE 03:10:20 23° SE 03:14:44 10° ENE
Meteor 1-24 Rocket 3.7 03:10:16 75° WNW 03:10:39 78° NNW 03:16:24 10° ENE
CZ-2C R/B 2.5 03:06:07 10° SE 03:11:21 86° SSE 03:11:21 86° SSE
CZ-2C R/B 3.9 03:06:57 10° ESE 03:11:23 72° ENE 03:11:23 72° ENE
Cosmos 2251 Rocket 4.4 03:13:20 36° SSE 03:13:20 36° SSE 03:16:50 10° SE
Cosmos 2098 Rocket 3.9 03:14:10 44° NE 03:14:10 44° NE 03:17:26 10° NE
Meteor 2-14 Rocket 4.4 03:12:07 66° SSW 03:13:02 82° SE 03:19:09 10° NE
Cosmos 1842 4.4 03:15:51 43° ENE 03:15:51 43° ENE 03:18:50 10° E
Meteor 1-19 Rocket 4.0 03:16:52 81° SSW 03:16:52 81° SSW 03:22:11 10° SE
Cosmos 1066 Rocket 4.3 03:15:49 61° NW 03:16:52 80° NNE 03:22:45 10° ESE
H-2A R/B 4.1 03:13:13 10° E 03:16:33 53° ENE 03:16:33 53° ENE
Cosmos 1092 Rocket 3.9 03:17:54 64° WNW 03:18:43 72° NNW 03:25:05 10° NE
Thor Agena Rocket 3.5 03:13:40 10° ENE 03:18:43 75° N 03:18:43 75° N
Cosmos 2151 3.8 03:18:40 46° ESE 03:18:47 46° ESE 03:22:53 10° NNE
Meteor 2-13 Rocket 4.3 03:18:47 66° WNW 03:19:26 72° NNW 03:25:32 10° ENE
Cosmos 1850 Rocket 4.5 03:22:39 49° SSE 03:22:39 49° SSE 03:27:42 10° E
Cosmos 968 Rocket 4.3 03:22:37 38° SSE 03:23:05 39° SE 03:27:51 10° ENE
ARIANE 5 R/B 3.1 03:18:34 10° NE 03:23:41 56° ESE 03:25:03 43° SSE
Meteor 1-21 4.3 03:24:06 61° NW 03:25:03 74° N 03:30:55 10° E
MSX 4.4 03:20:21 10° NNE 03:26:01 54° ESE 03:28:52 28° S
Cosmos 1536 Rocket 4.1 03:28:01 52° NNE 03:28:01 52° NNE 03:31:50 10° ENE
Cosmos 1025 Rocket 3.6 03:28:22 52° NNE 03:28:22 52° NNE 03:32:07 10° ENE
Meteor 1-18 Rocket 4.1 03:27:35 74° W 03:28:02 80° SW 03:33:44 10° SE
Cosmos 1674 3.9 03:30:19 38° NE 03:30:19 38° NE 03:33:01 10° ENE
Cosmos 2026 Rocket 3.8 03:29:03 65° WNW 03:29:47 72° NNW 03:35:53 10° NE
Cosmos 2082 Rocket 3.9 03:33:52 19° S 03:33:52 19° S 03:35:45 10° SSE
IDEFIX/ARIANE 42P 3.0 03:26:00 10° NE 03:31:10 59° ESE 03:32:33 44° S
Aureole 1 Rocket 4.3 03:32:37 29° SE 03:32:37 29° SE 03:35:20 10° ESE
Cosmos 1741 Rocket 4.4 03:32:13 49° SSE 03:32:13 49° SSE 03:37:09 10° E
ASTEX 1 4.3 03:28:13 10° NE 03:32:31 37° NNW 03:32:31 37° NNW
PSLV R/B 3.9 03:28:55 10° ENE 03:33:09 67° N 03:33:09 67° N
Meteor 2-19 Rocket 4.3 03:33:09 67° W 03:33:58 79° NW 03:40:09 10° NE
Helios 1B rocket 3.0 03:31:51 10° NE 03:35:08 55° NE 03:35:08 55° NE
Cosmos 1758 Rocket 3.9 03:38:43 60° NNE 03:38:43 60° NNE 03:42:21 10° NE
Cosmos 1378 4.3 03:40:00 42° E 03:40:00 42° E 03:42:41 10° ESE
SL-16 R/B 4.2 03:41:58 19° NW 03:41:58 19° NW 03:44:39 10° NNW
CZ-2D R/B 4.0 03:37:16 10° NE 03:41:12 53° ESE 03:41:12 53° ESE
Cosmos 2195 Rocket 4.4 03:42:57 59° WNW 03:43:57 69° NNW 03:50:13 10° ENE
Cosmos 1626 Rocket 3.9 03:45:24 57° NNE 03:45:24 57° NNE 03:49:07 10° NE
MOS 1 Rocket 3.7 03:39:47 10° SSE 03:44:22 62° SSW 03:44:22 62° SSW
IRS-1C 4.4 03:41:23 10° NE 03:46:44 66° ESE 03:48:13 46° S
Nadezhda 3 Rocket 3.9 03:40:43 10° NNW 03:46:59 64° WSW 03:53:11 10° S
ADEOS Rocket 3.9 03:48:14 42° WNW 03:48:14 42° WNW 03:54:36 10° NNW
Cosmos 1954 Rocket 4.4 03:49:46 50° S 03:49:46 50° S 03:54:46 10° ESE
Resurs 1-4 Rocket 2.0 03:45:54 10° NE 03:51:16 89° SE 03:51:52 71° SW
Cosmos 1892 Rocket 3.9 03:52:19 58° N 03:52:19 58° N 03:56:28 10° ENE
Cosmos 1745 Rocket 4.1 03:49:32 33° SSW 03:52:36 75° ESE 03:58:58 10° NNE
Meteor 2-20 4.4 03:51:14 39° NW 03:53:46 90° SW 04:00:00 10° SE
SME Rocket 4.1 03:48:33 10° ESE 03:53:53 85° SSW 03:57:01 38° WNW
Cosmos 1408 3.6 03:54:57 45° NE 03:54:57 45° NE 03:57:39 10° NE
Cosmos 1633 3.7 03:55:06 43° E 03:55:06 43° E 03:58:14 10° NE
Cosmos 1340 3.4 03:57:36 51° ENE 03:57:36 51° ENE 04:00:31 10° NE
Meteor 2-21 4.3 03:55:48 59° SW 03:57:03 85° NW 04:03:10 10° NE
Meteor 2-21 Rocket 4.3 03:56:12 56° SW 03:57:38 89° NW 04:03:45 10° NE
Cosmos 1484 Rocket 4.3 03:54:45 10° NNE 03:58:12 34° E 04:00:18 19° SSE
Cosmos 1975 Rocket 3.4 03:58:26 59° N 03:58:40 60° NNE 04:03:08 10° E
ADEOS II 2.1 03:53:44 10° NE 03:59:04 80° SE 04:00:02 60° SSW
EO 1 Del DPAF 4.0 03:55:52 10° ENE 03:58:51 47° NE 03:58:51 47° NE
CZ-4B R/B 3.5 03:54:42 10° NE 03:59:38 72° SE 04:00:22 60° S
Cosmos 1626 3.1 04:02:03 43° NE 04:02:03 43° NE 04:04:58 10° ENE
Okean 3 Rocket 4.2 04:00:22 38° SSE 04:01:45 54° ESE 04:06:10 10° NNE
Cosmos 1000 Rocket 4.5 03:58:40 33° NW 04:01:50 88° NE 04:08:12 10° SE
CZ-4 R/B 3.8 03:57:03 10° ENE 04:01:57 75° NNW 04:02:13 73° NW
Cosmos 1892 3.3 04:03:53 53° NE 04:03:53 53° NE 04:06:54 10° NE
Cosmos 1602 Rocket 3.8 04:04:56 62° N 04:04:56 62° N 04:08:54 10° ENE
Landsat 4 4.4 04:01:10 10° ENE 04:04:08 50° NE 04:04:08 50° NE
Intercosmos 25 Rocket 4.5 04:05:41 50° WSW 04:07:36 78° NW 04:12:33 10° NE
Meteor 1-11 4.2 04:07:19 60° WSW 04:08:30 88° NNW 04:14:23 10° ENE
Okean 2 3.7 04:08:33 62° NNE 04:08:33 62° NNE 04:12:38 10° ESE
Cosmos 1244 Rocket 4.4 04:06:46 46° SW 04:08:52 90° SE 04:15:17 10° NE
Okean 3 3.5 04:09:16 79° ESE 04:09:16 79° ESE 04:13:23 10° SE
CZ-2C R/B 3.3 04:05:43 10° NE 04:09:31 55° ESE 04:09:35 55° ESE
Cosmos 1707 3.3 04:10:44 55° NNE 04:10:44 55° NNE 04:14:22 10° E
Meteor 1-13 Rocket 4.1 04:10:14 54° NW 04:11:36 83° SW 04:17:14 10° SE
Meteor 2-16 Rocket 4.3 04:09:59 51° SW 04:11:42 88° NW 04:17:54 10° NE
Okean 1-7 3.2 04:12:57 62° SSE 04:12:57 62° SSE 04:16:35 10° SSE
Cosmos 1825 2.7 04:13:08 56° NE 04:13:08 56° NE 04:16:13 10° NE
Cosmos 2227 Rocket 3.1 04:12:04 32° SSW 04:13:25 36° SSE 04:18:34 10° E
ALOS 3.3 04:09:05 10° NNE 04:13:36 44° ESE 04:18:07 10° S
CBERS-1 4.0 04:09:34 10° NE 04:14:46 82° SE 04:15:47 58° SSW
Cosmos 1709 Rocket 4.2 04:12:09 18° SSW 04:17:02 72° ESE 04:23:21 10° NNE
Meteor 2-20 Rocket 4.4 04:15:20 36° NW 04:18:03 88° SW 04:24:17 10° SE
Cosmos 1441 Rocket 3.8 04:18:11 53° ESE 04:18:14 53° ESE 04:21:54 10° NE
IRS-1D 3.4 04:13:30 10° NE 04:18:30 85° SE 04:19:22 62° SW
Meteor 2-4 Rocket 3.7 04:18:18 50° WNW 04:19:51 73° SW 04:25:39 10° SSE
In-Cosmos 22 4.3 04:18:29 51° WNW 04:19:58 75° NNE 04:25:43 10° E
ARGOS Delta rocket 4.5 04:16:13 10° NNE 04:21:28 60° ESE 04:26:24 10° S
Cosmos 1328 4.2 04:22:21 55° NNE 04:22:21 55° NNE 04:25:49 10° ENE
Cosmos 1378 Rocket 3.7 04:21:19 65° NNW 04:21:48 72° NNE 04:26:16 10° ESE
Cosmos 2221 Rocket 3.5 04:21:36 76° NNW 04:21:56 84° NE 04:26:28 10° SE
Cosmos 1184 Rocket 4.1 04:22:24 40° E 04:22:24 40° E 04:25:09 10° NE
Cosmos 2123 Rocket 3.9 04:19:59 34° NW 04:22:54 87° NE 04:29:08 10° SE
Cosmos 1386 Rocket 4.5 04:20:15 31° SSW 04:23:26 83° ESE 04:29:38 10° NE
Meteor 1-23 Rocket 4.2 04:21:51 48° NW 04:23:36 89° SW 04:29:27 10° SE
IRS-P3 4.2 04:21:08 10° NE 04:26:31 78° SE 04:28:18 44° SSW
Meteor 1-21 Rocket 4.2 04:25:20 57° W 04:26:32 77° NNW 04:32:14 10° ENE
Cosmos 2242 Rocket 3.8 04:27:34 59° S 04:27:34 59° S 04:31:18 10° SSE
Cosmos 1953 Rocket 3.5 04:27:06 74° NNW 04:27:06 74° NNW 04:31:36 10° NE
Nadezhda 4 Rocket 4.2 04:25:40 46° WNW 04:27:30 64° N 04:33:50 10° ENE
Cosmos 1076 Rocket 3.4 04:28:47 81° S 04:28:58 86° SE 04:33:22 10° NE
Meteor 1-29 4.0 04:26:20 10° NE 04:28:47 41° NE 04:28:47 41° NE
Cosmos 1271 Rocket 4.1 04:31:43 28° SSE 04:31:43 28° SSE 04:33:43 10° SSE
Cosmos 1655 Rocket 4.0 04:28:43 50° W 04:30:27 72° NNW 04:36:49 10° ENE
Cosmos 405 Rocket 4.3 04:28:40 10° S 04:32:11 35° ESE 04:35:47 10° NE
SL-08 R/B 4.3 04:30:36 40° SW 04:33:00 89° NW 04:39:11 10° NE
In-Cosmos 22 Rocket 4.2 04:32:12 48° SW 04:33:52 87° SE 04:39:40 10° NE
Meteor 2-3 Rocket 4.2 04:29:27 13° SSW 04:34:41 62° ESE 04:40:26 10° NE
Meteor 2-5 Rocket 3.8 04:33:38 50° WNW 04:35:11 73° N 04:41:00 10° E
Cosmos 2219 4.1 04:33:40 32° SSW 04:35:14 38° S 04:40:31 10° ESE
DMSP B5D2-2 4.0 04:30:16 10° SSE 04:35:29 66° WSW 04:36:11 59° W
Meteor 1-31 Rocket 4.1 04:33:13 10° NNE 04:36:54 40° ESE 04:40:34 10° S
CZ-2C R/B 2.7 04:32:22 10° NE 04:36:57 60° ESE 04:39:34 24° S
Cosmos 1825 Rocket 3.5 04:37:51 66° NNW 04:37:51 66° NNW 04:42:07 10° NE
SAR-Lupe-2 4.0 04:34:26 10° ESE 04:37:44 61° NE 04:37:44 61° NE
NPP 3.6 04:32:37 10° ENE 04:38:03 84° NNW 04:39:20 54° WSW
Cosmos 2058 2.8 04:38:31 84° N 04:38:31 84° N 04:42:40 10° NE
Cosmos 1346 Rocket 2.7 04:38:55 83° ENE 04:38:55 83° ENE 04:42:47 10° NE
SL-24 DEB 4.2 04:34:35 10° S 04:39:25 86° W 04:44:14 10° N
CZ-2D R/B 2.1 04:34:36 10° ENE 04:40:02 81° NNW 04:41:20 54° WSW
Okean 1-7 Rocket 3.8 04:39:52 56° NNW 04:40:03 57° N 04:44:27 10° ENE
AQUA 3.7 04:36:18 10° NE 04:41:06 79° NNW 04:41:44 66° W
Cosmos 1140 Rocket 3.9 04:40:51 44° SW 04:41:07 44° SSW 04:46:05 10° SE
Cosmos 1809 Rocket 4.4 04:39:49 49° W 04:41:32 75° NNW 04:47:39 10° ENE
FENGYUN 3A 4.3 04:38:00 10° NNE 04:43:22 55° ESE 04:48:42 10° S
Cosmos 1674 Rocket 3.5 04:43:07 67° NNW 04:43:39 81° NE 04:48:01 10° SE
Cosmos 407 Rocket 4.0 04:43:26 43° SW 04:43:45 43° SSW 04:48:49 10° SE
SJ 16-02 2.9 04:41:11 18° S 04:43:46 33° SE 04:47:45 10° ENE
Cosmos 1703 Rocket 3.6 04:44:48 60° SSW 04:44:48 60° SSW 04:48:36 10° SSE
Cosmos 676 Rocket 4.4 04:44:38 45° SW 04:45:13 46° SSW 04:50:16 10° SE
Cosmos 1703 3.6 04:45:57 55° N 04:45:57 55° N 04:49:35 10° ENE
Cosmos 2297 Rocket 3.1 04:44:12 31° SSW 04:45:50 37° S 04:51:01 10° ESE
Cosmos 1727 Rocket 3.9 04:42:29 27° NW 04:46:04 70° WSW 04:52:23 10° SSE
Cosmos 1500 Rocket 4.4 04:43:35 10° S 04:47:50 51° ESE 04:52:07 10° NNE
SL-14 R/B 3.6 04:48:07 54° N 04:48:07 54° N 04:51:56 10° E
CZ-2C R/B 3.7 04:44:12 10° SE 04:48:59 75° SW 04:49:38 63° WNW
Nimbus 7 Rocket 4.4 04:43:37 10° E 04:49:34 79° N 04:51:29 45° WNW
Cosmos 2074 Rocket 4.3 04:43:47 10° S 04:49:57 66° ESE 04:56:09 10° NNE
Nadezhda 2 Rocket 4.5 04:47:45 40° WSW 04:50:15 79° NW 04:56:40 10° NE
Tsikada Rocket 4.2 04:47:34 36° NW 04:50:20 69° NNE 04:56:47 10° ESE
Cosmos 1842 3.3 04:51:08 70° N 04:51:20 72° NE 04:55:16 10° ESE
CZ-2C R/B 2.6 04:46:56 10° SSE 04:52:11 58° WSW 04:52:51 54° W
H-2A R/B 3.3 04:48:35 10° SE 04:52:43 90° N 04:53:00 77° NW
Cosmos 2263 Rocket 3.6 04:49:24 17° SSW 04:53:02 33° SSE 04:58:04 10° E
Cosmos 2251 Rocket 4.3 04:53:49 35° SW 04:53:49 35° SW 04:58:09 10° SSE
ADEOS 4.4 04:48:27 10° NE 04:53:36 52° ESE 04:58:43 10° S
Cosmos 2266 Rocket 4.0 04:51:33 44° W 04:53:39 70° NNW 05:00:06 10° ENE
Meteor 1-24 Rocket 3.8 04:52:27 46° WNW 04:54:12 73° N 04:59:55 10° E
Cosmos 2098 Rocket 3.2 04:54:34 54° N 04:54:34 54° N 04:59:02 10° ENE
SL-19 R/B 4.5 04:48:19 10° ENE 04:54:41 84° NNW 04:57:03 42° WSW
Sich 1 4.3 04:50:38 10° S 04:54:48 42° E 04:58:58 10° NNE
SL-08 ROCKET BODY 4.4 04:52:20 34° SW 04:55:16 85° NW 05:01:32 10° NE
Iridium 2 3.7 04:56:11 69° SSE 04:56:11 69° SSE 04:59:32 10° SSE
Cosmos 2151 2.9 04:55:14 62° SSW 04:55:55 84° SE 05:00:12 10° NE
Thor Agena Rocket 3.5 04:52:58 10° E 04:58:02 75° NNE 04:59:19 50° WNW
Meteor 2-14 Rocket 4.4 04:56:10 45° W 04:58:10 74° NNW 05:04:16 10° ENE
Meteor 1-19 Rocket 4.2 04:59:15 50° W 04:59:49 53° WSW 05:05:06 10° S
Cosmos 1066 Rocket 4.2 04:57:44 41° NW 04:59:53 76° SW 05:05:43 10° SE
Cosmos 1190 Rocket 4.5 05:00:09 41° SW 05:00:40 42° SSW 05:05:36 10° SE
ARIANE 5 R/B 2.5 04:58:01 10° NE 05:03:13 86° SE 05:05:23 37° SW
Cosmos 1862 4.1 05:00:04 10° S 05:04:02 52° ESE 05:07:59 10° NE
Cosmos 1850 Rocket 4.5 05:02:57 41° SW 05:04:10 49° SSW 05:09:19 10° ESE
Cosmos 968 Rocket 4.1 05:02:37 35° SW 05:04:17 48° S 05:09:14 10° E
Cosmos 1092 Rocket 4.2 05:02:33 41° WNW 05:04:46 63° N 05:11:04 10° E
Cosmos 1674 2.9 05:05:07 56° N 05:05:17 57° NNE 05:09:02 10° E
Cosmos 1536 Rocket 3.8 05:05:10 51° NNW 05:05:55 61° NNE 05:10:14 10° E
Cosmos 1025 Rocket 3.2 05:05:15 53° NNW 05:05:58 63° NNE 05:10:15 10° ESE
Okean O Rocket 3.7 05:03:32 10° NNE 05:07:26 29° E 05:11:20 10° SSE
CZ-4 R/B 4.2 05:05:00 10° NNE 05:08:07 20° ENE 05:11:16 10° ESE
MSX 3.8 05:02:31 10° NE 05:08:18 81° SE 05:11:54 24° SW
Meteor 1-21 4.2 05:06:26 40° NW 05:08:40 89° NE 05:14:32 10° SE
COSMOS 2487 3.8 05:10:05 30° S 05:10:05 30° S 05:12:29 10° SE
PSLV R/B 3.9 05:05:33 10° ENE 05:10:04 62° N 05:10:55 51° NW
ASTEX 1 4.4 05:06:36 10° ENE 05:10:58 33° N 05:12:01 30° NNW
Cosmos 1766 Rocket 3.6 05:09:14 35° SSW 05:11:05 80° SE 05:15:32 10° NE
IDEFIX/ARIANE 42P 2.5 05:05:55 10° NE 05:11:09 90° S 05:13:21 36° SW
Cosmos 1408 Rocket 3.8 05:08:16 21° SSW 05:11:11 70° ESE 05:15:34 10° NE
Helios 1B rocket 2.4 05:07:07 10° ENE 05:11:11 62° N 05:11:26 60° NNW
Meteor 1-18 Rocket 4.4 05:10:04 45° WNW 05:11:11 51° WSW 05:16:40 10° S
ERS-1 4.4 05:06:30 10° NE 05:11:34 88° SE 05:13:32 38° SW
Cosmos 2082 Rocket 4.0 05:15:44 16° SW 05:15:44 16° SW 05:17:38 10° SSW
Cosmos 1741 Rocket 4.5 05:12:33 40° SW 05:13:46 48° SSW 05:18:48 10° ESE
Cosmos 1743 Rocket 4.1 05:09:41 10° SSW 05:14:08 61° ESE 05:18:35 10° NE
Cosmos 2184 Rocket 4.3 05:08:03 10° SSW 05:14:26 73° ESE 05:20:49 10° NNE
Cosmos 1378 3.0 05:14:37 74° SSW 05:14:37 74° SSW 05:18:10 10° SSE
PSLV R/B 3.7 05:10:18 10° NE 05:14:44 73° SE 05:17:16 25° SSW
Aureole 1 Rocket 3.7 05:15:11 35° SSW 05:15:12 35° SSW 05:19:17 10° SE
Cosmos 2026 Rocket 4.1 05:13:36 41° WNW 05:15:42 63° N 05:21:45 10° ENE
Cosmos 1758 Rocket 3.6 05:15:52 56° NW 05:16:14 59° NNW 05:20:32 10° ENE
CZ-2D R/B 3.3 05:13:07 10° NE 05:17:13 88° NW 05:17:51 63° SW
PAYLOAD A 4.3 05:12:02 10° NE 05:17:32 77° SE 05:22:00 16° SW
deb Chang Zheng 4 4.5 05:13:52 10° NE 05:18:07 50° ESE 05:22:23 10° S
CZ-4B R/B 4.1 05:14:01 10° NNE 05:18:27 49° ESE 05:22:49 10° S
Cosmos 1626 Rocket 3.7 05:22:31 51° NW 05:23:04 55° N 05:27:21 10° ENE
MOS 1 Rocket 4.0 05:18:59 10° SSW 05:23:40 42° WSW 05:23:40 42° WSW
COSMOS 2441 4.3 05:19:18 10° NE 05:24:08 89° SSE 05:26:19 33° SW
Cosmos 2346 Rocket 4.5 05:21:46 32° NW 05:24:47 78° NE 05:30:55 10° SE
Spot 4 Rocket 4.0 05:20:06 10° NE 05:25:19 86° SE 05:28:09 28° SW
SL-16 R/B 4.3 05:27:02 14° NNW 05:27:02 14° NNW 05:29:29 10° N
IRS-1C 4.0 05:21:40 10° NE 05:27:03 87° NNW 05:29:29 34° WSW
Cosmos 1408 2.7 05:29:15 63° NNW 05:29:15 63° NNW 05:32:47 10° NE
Cosmos 1633 2.4 05:29:12 77° SSW 05:29:27 88° SE 05:33:04 10° NE
Cosmos 1892 Rocket 3.9 05:29:29 47° NW 05:30:26 58° N 05:34:52 10° E
Resurs 1-4 Rocket 2.1 05:25:50 10° ENE 05:31:10 73° NNW 05:32:56 43° W
Nadezhda 3 Rocket 4.4 05:26:00 10° NNW 05:31:48 39° W 05:37:33 10° SSW
Cosmos 1805 Rocket 4.2 05:27:40 10° S 05:32:04 57° ESE 05:36:29 10° NE
Cosmos 1340 2.6 05:32:21 68° NNW 05:32:29 69° NNW 05:36:17 10° ENE
Cosmos 1484 Rocket 2.9 05:29:24 10° NE 05:33:08 68° ESE 05:35:38 20° SSW
SL-27 R/B 4.3 05:34:33 19° S 05:34:33 19° S 05:36:03 10° S
EO 1 Del DPAF 3.3 05:29:37 10° E 05:33:21 61° NNE 05:33:48 55° NNW
ADEOS Rocket 4.3 05:35:12 29° NW 05:35:12 29° NW 05:41:14 10° N
JB-3 4.3 05:31:14 10° SE 05:35:14 82° NE 05:36:07 54° NW
Cosmos 1975 Rocket 3.1 05:35:35 46° NW 05:36:55 80° NE 05:41:26 10° SE
Cosmos 1626 2.4 05:36:34 53° N 05:37:00 57° NNE 05:40:42 10° E
RUBIN 8/PSLV 4.4 05:33:05 10° NE 05:37:26 84° NW 05:38:51 43° WSW
Cosmos 1745 Rocket 4.0 05:34:13 25° WSW 05:38:11 78° NW 05:44:36 10° NE
CZ-4B R/B 3.3 05:33:36 10° ENE 05:38:34 81° NNW 05:40:18 41° WSW
Meteor 2-20 4.5 05:35:19 28° NW 05:38:34 60° WSW 05:44:38 10° S
Landsat 4 3.8 05:35:03 10° ENE 05:38:49 58° N 05:39:05 56° NNW
ADEOS II 2.0 05:33:37 10° ENE 05:38:54 77° NNW 05:40:58 38° W
Cosmos 1892 2.7 05:38:51 60° NNW 05:38:57 60° NNW 05:42:47 10° ENE
Okean 3 Rocket 3.5 05:37:46 33° SW 05:39:48 88° NW 05:44:20 10° NE
CZ-4 R/B 4.0 05:35:03 10° E 05:39:54 68° N 05:41:24 44° WNW
H-2A R/B 4.2 05:36:59 10° NNE 05:41:05 25° ENE 05:45:07 10° SE
Meteor 2-21 4.4 05:39:56 37° W 05:42:25 68° NNW 05:48:29 10° ENE
Cosmos 1602 Rocket 3.8 05:42:04 47° NW 05:42:53 56° N 05:47:12 10° ENE
Meteor 2-21 Rocket 4.4 05:40:22 36° W 05:42:58 69° NNW 05:49:04 10° ENE
H-2A R/B 3.9 05:39:49 10° NE 05:43:28 35° ESE 05:47:02 10° S
CZ-2C R/B 2.6 05:40:19 10° NE 05:44:12 83° NW 05:44:59 55° WSW
Okean 2 3.3 05:44:38 53° NW 05:45:35 88° SW 05:49:45 10° SE
Okean 3 3.5 05:45:47 53° W 05:46:14 56° WSW 05:50:28 10° S
KORONAS-FOTON 3.9 05:45:52 53° NNW 05:46:33 66° NNE 05:50:23 10° ESE
Cosmos 1707 2.7 05:45:53 55° NW 05:46:42 79° NE 05:50:38 10° SE
Cosmos 1825 2.1 05:47:55 63° NW 05:48:06 64° NNW 05:51:53 10° NE
Okean 1-7 3.3 05:49:49 44° WSW 05:49:49 44° WSW 05:53:44 10° S
SME Rocket 4.1 05:46:03 10° SSE 05:51:08 59° WSW 05:55:19 26° NW
ALOS 2.4 05:46:50 10° NE 05:51:33 77° SE 05:56:16 10° SW
Terra 4.4 05:50:53 10° NNE 05:51:53 11° NE 05:52:53 10° NE
Meteor 1-11 4.3 05:49:37 36° W 05:52:05 74° N 05:57:57 10° ENE
CBERS-1 4.0 05:48:52 10° ENE 05:54:01 76° NNW 05:56:10 36° W
Cosmos 1441 Rocket 3.0 05:53:15 53° WSW 05:54:05 89° NW 05:57:52 10° NE
Meteor 1-13 Rocket 4.3 05:52:41 35° NW 05:54:48 54° WSW 06:00:15 10° S
Cosmos 1184 Rocket 2.7 05:55:18 70° SSW 05:55:36 83° SE 05:58:53 10° NE
OBJECT-B 3.9 05:54:22 10° NE 05:55:37 12° ENE 05:56:54 10° E
Cosmos 2227 Rocket 3.2 05:53:53 24° WSW 05:56:36 37° S 06:01:45 10° SE
Meteor 2-16 Rocket 4.4 05:54:06 33° W 05:57:01 69° NNW 06:03:11 10° ENE
IRS-1D 3.4 05:52:54 10° ENE 05:57:52 73° NNW 05:59:50 37° W
Cosmos 1328 4.1 05:57:54 48° NW 05:58:31 53° N 06:02:29 10° ENE
Cosmos 1378 Rocket 3.5 05:58:22 44° NW 05:59:43 73° WSW 06:04:10 10° SSE
Cosmos 2221 Rocket 3.6 05:59:05 46° WNW 06:00:07 59° WSW 06:04:33 10° SSE
ARGOS Delta rocket 3.9 05:55:07 10° NE 06:00:27 85° NW 06:05:29 10° SW
YAOGAN 6 3.6 05:57:06 10° NNE 06:00:32 47° ESE 06:03:57 10° S
Cosmos 1633 Rocket 3.8 05:56:44 10° S 06:01:02 54° ESE 06:05:21 10° NNE
Meteor 2-17 Rocket 4.4 05:55:07 10° SW 06:01:14 90° NNW 06:07:24 10° NE
Meteor 1-29 3.2 05:58:55 10° ENE 06:02:17 50° N 06:02:24 50° N
Meteor 2-4 Rocket 4.1 06:00:23 33° NW 06:02:29 46° WSW 06:08:00 10° S
Cosmos 1709 Rocket 3.9 05:56:50 13° SW 06:02:34 80° NW 06:08:55 10° NE
In-Cosmos 22 4.2 06:00:05 34° NW 06:02:47 87° SW 06:08:31 10° SE
Cosmos 2242 Rocket 4.1 06:05:04 38° WSW 06:05:04 38° WSW 06:08:51 10° SSW
Cosmos 1953 Rocket 3.8 06:04:16 44° WNW 06:05:24 58° N 06:09:52 10° ENE
Cosmos 1271 Rocket 4.1 06:06:52 24° SW 06:06:52 24° SW 06:08:55 10° SSW
Meteor 1-23 Rocket 4.3 06:04:07 32° NW 06:06:42 60° WSW 06:12:26 10° SSE
IRS-P3 4.1 06:01:19 10° ENE 06:06:42 79° NNW 06:09:35 29° WSW
Cosmos 1076 Rocket 3.5 06:05:34 45° W 06:06:43 64° NNW 06:11:05 10° ENE
Envisat 3.8 06:02:08 10° NNE 06:07:10 54° ESE 06:12:11 10° S
Cosmos 405 Rocket 3.1 06:04:00 10° SSW 06:07:50 66° SE 06:11:45 10° NE
Cosmos 2123 Rocket 4.0 06:04:40 25° NW 06:08:18 63° WSW 06:14:24 10° S
Cosmos 1844 Rocket 4.4 06:03:46 10° SSW 06:08:44 32° SSE 06:13:42 10° E
Cosmos 1386 Rocket 4.4 06:04:47 22° WSW 06:08:58 72° NNW 06:15:09 10° NE
Resurs 01 Rocket 4.3 06:06:51 10° NNE 06:09:28 15° ENE 06:12:07 10° E
Intercosmos 25 Rocket 4.4 06:06:24 30° WNW 06:09:47 64° N 06:14:23 10° ENE
Meteor 1-21 Rocket 4.3 06:07:47 34° WNW 06:10:20 74° N 06:16:01 10° E
SAR-Lupe-2 3.5 06:07:44 10° SE 06:11:22 85° SW 06:12:03 57° NW
Meteor 1-31 Rocket 2.9 06:07:51 10° NE 06:11:45 77° SE 06:15:37 10° SW
Cosmos 1447 Rocket 4.5 06:07:54 25° NW 06:11:45 75° WSW 06:18:07 10° SSE
MTI 3.6 06:08:53 10° ESE 06:12:00 72° NE 06:12:15 66° N
Nadezhda 4 Rocket 4.2 06:10:14 30° NW 06:13:30 68° NNE 06:19:51 10° ESE
SJ-12 4.1 06:10:01 10° NE 06:14:07 72° SE 06:18:11 10° SSW
Cosmos 1346 Rocket 2.8 06:14:24 49° WNW 06:15:20 68° NNW 06:19:21 10° ENE
CZ-2C R/B 2.1 06:10:52 10° NE 06:15:31 86° NW 06:18:57 18° SW
Cosmos 2058 3.0 06:14:43 46° WNW 06:15:40 59° NNW 06:19:50 10° ENE
CZ-4B R/B 3.7 06:12:13 10° NE 06:15:55 76° SE 06:19:35 10° SW
Cosmos 1825 Rocket 3.7 06:14:58 42° NW 06:16:06 56° N 06:20:23 10° ENE
Cosmos 1655 Rocket 4.1 06:13:39 31° WNW 06:16:48 63° N 06:23:07 10° E
In-Cosmos 22 Rocket 4.2 06:13:58 30° W 06:16:52 75° NNW 06:22:41 10° ENE
Meteor 2-3 Rocket 3.8 06:12:00 10° SW 06:17:51 90° WSW 06:23:44 10° NE
SL-24 DEB 4.5 06:13:18 10° SSW 06:17:57 48° WNW 06:22:36 10° N
NPP 3.6 06:12:53 10° ENE 06:18:17 72° N 06:20:49 32° W
Cosmos 2219 4.2 06:15:35 22° WSW 06:18:30 36° SSW 06:23:42 10° SE
SL-08 R/B 4.4 06:15:09 26° W 06:18:43 68° NNW 06:24:51 10° ENE
Okean 1-7 Rocket 3.8 06:17:18 39° NW 06:18:44 60° NNE 06:23:10 10° E
AQUA 3.9 06:14:03 10° ENE 06:18:48 66° N 06:20:37 37° WNW
Meteor 2-5 Rocket 3.8 06:16:06 32° WNW 06:19:00 84° NNE 06:24:48 10° ESE
H-2A R/B 3.2 06:15:41 10° NE 06:19:37 63° ESE 06:23:31 10° SSW
CZ-2D R/B 2.2 06:14:41 10° E 06:20:05 72° N 06:22:40 32° WNW
PSLV R/B 4.5 06:17:21 10° NE 06:21:15 55° ESE 06:25:02 10° SSW
Cosmos 1674 Rocket 3.6 06:20:13 41° WNW 06:21:29 61° WSW 06:25:47 10° SSE
SJ 16-02 2.3 06:18:12 14° SW 06:21:46 46° SSE 06:26:02 10° E
Cosmos 1703 Rocket 4.2 06:21:59 35° W 06:21:59 35° W 06:25:46 10° SSW
Cosmos 1140 Rocket 4.4 06:20:52 28° WSW 06:22:09 32° SW 06:26:44 10° S
Cosmos 1703 3.6 06:21:18 43° NW 06:22:12 54° N 06:26:07 10° E
Cosmos 2154 Rocket 4.0 06:16:19 10° SSW 06:22:38 86° SE 06:29:02 10° NE
FENGYUN 3A 3.7 06:18:42 10° NE 06:24:11 84° SE 06:29:39 10° SW
SL-14 R/B 3.4 06:23:33 43° NW 06:24:41 67° NNE 06:28:34 10° ESE
Cosmos 1500 Rocket 3.5 06:21:09 10° SW 06:25:34 89° SE 06:30:00 10° NE
CZ-2C R/B 4.2 06:22:04 10° S 06:26:38 44° WSW 06:27:53 36° WNW
Cosmos 1809 Rocket 4.5 06:23:59 30° WNW 06:27:04 65° N 06:33:10 10° E
Cosmos 1842 3.2 06:26:24 46° WNW 06:27:25 67° WSW 06:31:19 10° SSE
H-2A R/B 3.6 06:24:24 10° SSE 06:28:26 53° WSW 06:29:27 41° WNW
Cosmos 2297 Rocket 3.3 06:26:00 21° WSW 06:28:59 35° SSW 06:34:03 10° SE
CBERS 1 LM4 rocket 4.3 06:25:26 10° NE 06:30:14 86° SE 06:35:09 10° SW
Iridium 2 4.1 06:31:04 41° W 06:31:04 41° W 06:34:25 10° SSW
Cosmos 1727 Rocket 4.3 06:27:13 21° NNW 06:31:02 44° W 06:36:58 10° SSW
Sich 1 3.2 06:27:47 10° SSW 06:32:13 76° SE 06:36:39 10° NE
Nimbus 7 Rocket 4.4 06:26:15 10° ESE 06:32:15 88° SSW 06:35:28 29° WNW
Cosmos 1295 Rocket 4.5 06:26:35 10° SSW 06:32:43 85° SE 06:38:56 10° NE
Cosmos 2327 Rocket 4.4 06:26:44 10° SW 06:32:52 89° SE 06:39:06 10° NE
SL-8 Rocket 4.2 06:27:00 10° SSW 06:33:11 74° ESE 06:39:26 10° NNE
CZ-2C R/B 3.2 06:28:35 10° SSW 06:33:25 34° W 06:34:21 32° WNW
Cosmos 2151 2.9 06:31:49 35° W 06:33:27 64° NNW 06:37:42 10° ENE
ADEOS 3.7 06:28:22 10° NE 06:33:39 81° SE 06:38:55 10° SW
Cosmos 1939 Rocket 4.2 06:30:48 10° NNE 06:34:41 42° ESE 06:38:36 10° S
Cosmos 2074 Rocket 3.9 06:29:09 10° SW 06:35:24 84° NW 06:41:42 10° NE
Cosmos 2263 Rocket 3.4 06:31:06 11° WSW 06:36:01 38° S 06:41:14 10° ESE
Cosmos 2098 Rocket 3.3 06:34:58 38° NW 06:36:10 53° NNE 06:40:54 10° E
Tsikada Rocket 4.0 06:32:23 26° NW 06:36:20 90° NNE 06:42:48 10° SE
Thor Agena Rocket 3.4 06:32:20 10° SE 06:37:27 87° SW 06:39:54 32° NW
Meteor 1-24 Rocket 3.8 06:34:38 30° WNW 06:37:42 85° NNE 06:43:23 10° ESE
Cosmos 2266 Rocket 4.2 06:36:07 28° WNW 06:39:39 64° N 06:46:04 10° E
SMAP 3.8 06:35:22 10° NE 06:39:58 54° ESE 06:44:34 10° SSW
SL-08 ROCKET BODY 4.5 06:36:03 22° W 06:40:11 67° NNW 06:46:22 10° ENE
Cosmos 1862 3.2 06:36:15 10° SW 06:40:20 87° NW 06:44:26 10° NE
Cosmos 1674 2.6 06:39:56 43° NW 06:41:05 85° NE 06:44:53 10° SE
METEOR-M 4.1 06:37:00 10° NE 06:42:24 86° SE 06:47:47 10° SW
ARIANE 5 R/B 2.5 06:37:16 10° ENE 06:42:26 74° NNW 06:45:43 23° W
Meteor 2-14 Rocket 4.5 06:40:14 28° WNW 06:43:36 65° N 06:49:40 10° E
COSMOS 2487 3.9 06:43:30 22° SW 06:43:41 23° SW 06:46:26 10° S
Cosmos 1025 Rocket 2.9 06:42:07 36° NW 06:43:52 88° SW 06:48:10 10° SE
Cosmos 1536 Rocket 3.5 06:42:19 35° NW 06:44:07 85° NE 06:48:29 10° SE
CZ-4 R/B 3.1 06:40:19 10° NNE 06:44:13 35° E 06:48:09 10° SSE
Okean O Rocket 2.5 06:40:16 10° NE 06:44:38 52° ESE 06:49:01 10° S
Cosmos 968 Rocket 4.1 06:42:38 23° WSW 06:45:35 47° SSW 06:50:30 10° ESE
Helios 1B rocket 2.5 06:42:14 10° E 06:46:18 62° NNE 06:47:44 37° NW
PSLV R/B 3.8 06:42:07 10° ESE 06:46:39 69° NNE 06:48:42 33° NW
Cosmos 1470 Rocket 4.1 06:42:52 10° SSW 06:47:11 61° ESE 06:51:29 10° NE
SJ-6F 4.4 06:43:32 10° NE 06:47:45 80° NW 06:51:59 10° WSW
Cosmos 2341 Rocket 4.1 06:41:34 10° SSW 06:47:50 83° ESE 06:54:11 10° NE
Cosmos 1408 Rocket 3.4 06:45:23 15° WSW 06:49:06 73° NW 06:53:31 10° NE
Cosmos 1766 Rocket 3.5 06:46:25 23° WSW 06:49:09 68° NNW 06:53:36 10° NE
ASTEX 1 4.3 06:44:43 10° E 06:49:14 38° NNE 06:51:31 24° NNW
Cosmos 1378 3.6 06:49:14 38° W 06:49:32 39° WSW 06:53:01 10° S
MSX 3.8 06:44:26 10° ENE 06:50:12 78° NNW 06:54:57 16° WSW
Meteor 2-13 Rocket 4.5 06:46:54 28° NW 06:50:19 74° NNE 06:56:25 10° ESE
USA 81 4.0 06:45:08 10° SSW 06:50:27 85° WNW 06:55:47 10° NNE
ERS-1 4.4 06:45:36 10° ENE 06:50:38 73° NNW 06:53:44 24° W
IDEFIX/ARIANE 42P 2.5 06:45:36 10° ENE 06:50:48 71° NNW 06:54:09 22° W
PSLV R/B 3.5 06:46:24 10° NE 06:50:48 75° NNW 06:54:14 16° WSW
Cosmos 1092 Rocket 4.1 06:47:12 27° NW 06:50:51 69° NNE 06:57:10 10° ESE
Cosmos 1238 Rocket 3.7 06:48:25 10° S 06:51:25 41° ESE 06:54:49 10° NNE
Meteor 1-21 4.4 06:48:46 28° NW 06:51:55 64° WSW 06:57:41 10° SSE
Cosmos 1743 Rocket 3.5 06:47:29 10° SW 06:52:01 81° NW 06:56:32 10° NE
Okean-O 4.2 06:48:05 10° NNE 06:52:14 36° E 06:56:23 10° SSE
CZ-2D R/B 3.4 06:48:47 10° ENE 06:52:50 62° NNW 06:54:29 33° W
CZ-4B R/B 3.2 06:49:22 10° NE 06:53:56 83° SE 06:58:26 10° SW
deb Chang Zheng 4 3.6 06:50:03 10° NE 06:54:25 84° SE 06:58:49 10° SW
Cosmos 1758 Rocket 3.7 06:53:01 35° NW 06:54:38 57° N 06:58:55 10° E
Cosmos 2082 Rocket 4.3 06:57:36 10° WSW 06:57:36 10° WSW 06:57:41 10° WSW
PAYLOAD A 4.1 06:51:10 10° ENE 06:56:38 78° NNW 07:02:04 10° WSW
Aureole 1 Rocket 4.2 06:57:46 22° WSW 06:58:55 25° SW 07:02:42 10° SSE
CZ-4B R/B 3.9 06:54:38 10° NE 06:59:55 57° ESE 07:05:15 10° SSW
Cosmos 2184 Rocket 4.0 06:53:39 10° SW 07:00:06 79° NW 07:06:32 10° NE
Cosmos 1626 Rocket 3.7 06:59:37 33° NW 07:01:25 62° NNE 07:05:43 10° ESE
Cosmos 2026 Rocket 4.0 06:58:09 27° NW 07:01:40 68° NNE 07:07:44 10° ESE
Meteor 2-12 Rocket 4.5 06:55:30 10° SW 07:01:42 86° SE 07:07:55 10° NE
COSMOS 2441 4.3 06:57:30 10° ENE 07:02:17 69° NNW 07:05:33 20° W
Cosmos 1356 3.7 07:00:37 10° SW 07:04:03 68° SE 07:07:29 10° NE
Cosmos 1633 2.5 07:03:18 37° W 07:04:29 58° NNW 07:08:03 10° NE
Cosmos 1408 2.9 07:03:33 39° NW 07:04:30 50° N 07:08:09 10° ENE
Spot 4 Rocket 4.0 06:59:28 10° ENE 07:04:39 74° NNW 07:08:38 17° W
IRS-1C 4.1 07:01:44 10° ENE 07:07:06 73° N 07:10:46 21° W
EO 1 Del DPAF 3.1 07:03:29 10° SE 07:07:16 85° NE 07:08:44 36° NW
Cosmos 1484 Rocket 2.5 07:03:56 10° NE 07:07:40 71° NW 07:10:58 13° WSW
Cosmos 1340 2.7 07:07:05 37° WNW 07:08:24 65° N 07:12:12 10° E
Cosmos 1892 Rocket 3.6 07:06:39 31° NW 07:08:46 73° NE 07:13:13 10° ESE
Cosmos 1805 Rocket 3.5 07:05:23 10° SW 07:09:54 85° NW 07:14:25 10° NE
Cosmos 2346 Rocket 4.4 07:06:04 24° NW 07:09:59 74° WSW 07:16:03 10° SSE
Cosmos 1602 4.0 07:06:47 10° SSW 07:10:44 70° ESE 07:14:40 10° NE
Resurs 1-4 Rocket 2.1 07:05:36 10° E 07:10:55 72° N 07:14:01 26° WNW
Meteor PRIRODA 3.6 07:08:03 10° NE 07:11:50 88° NNW 07:15:37 10° SW
YAOGAN 1 4.0 07:07:44 10° NNE 07:11:52 40° ESE 07:16:00 10° S
Cosmos 1626 2.1 07:11:06 36° NW 07:12:31 86° NE 07:16:16 10° SE
Landsat 4 3.8 07:08:50 10° E 07:12:37 64° NNE 07:14:03 35° NW
SL-16 R/B 4.4 07:12:08 12° N 07:12:37 12° N 07:15:06 10° NNE
Cosmos 1975 Rocket 3.2 07:12:44 30° NW 07:14:49 63° WSW 07:19:16 10° SSE
Cosmos 1892 2.9 07:13:49 35° NW 07:15:05 52° N 07:18:52 10° ENE
Cosmos 1933 Rocket 4.0 07:12:21 10° SSW 07:16:48 68° ESE 07:21:17 10° NE
CZ-4B R/B 3.4 07:12:19 10° E 07:17:15 71° N 07:20:13 24° W
CZ-4 R/B 3.9 07:12:59 10° ESE 07:17:51 78° NNE 07:20:35 27° NW
Cosmos 1666 Rocket 3.5 07:13:28 10° SW 07:17:53 87° SE 07:22:20 10° NE
Okean 3 Rocket 3.6 07:15:10 20° W 07:18:13 62° NNW 07:22:43 10° ENE
CZ-2C R/B 2.8 07:14:44 10° ENE 07:18:34 58° NNW 07:20:21 28° W
ADEOS II 2.1 07:13:18 10° E 07:18:34 70° N 07:21:54 23° WNW
H-2A R/B 2.6 07:15:35 10° NE 07:19:30 68° SE 07:23:20 10° SSW
Meteor 1-25 Rocket 4.5 07:15:27 10° SSW 07:21:01 73° SE 07:26:39 10° NE
Cosmos 1602 Rocket 3.7 07:19:13 30° NW 07:21:15 63° NNE 07:25:35 10° ESE
H-2A R/B 3.2 07:16:57 10° NNE 07:21:44 42° ESE 07:26:25 10° S
Okean 2 3.7 07:20:44 32° NW 07:22:16 48° WSW 07:26:17 10° S
KORONAS-FOTON 3.7 07:20:56 34° NW 07:22:30 76° SW 07:26:20 10° SSE
Cosmos 1707 2.9 07:21:02 33° NW 07:22:33 59° WSW 07:26:26 10° SSE
Okean 3 4.4 07:22:18 28° WNW 07:22:58 30° W 07:26:43 10° SSW
Cosmos 1825 2.4 07:22:43 34° WNW 07:24:01 51° N 07:27:44 10° ENE
Cosmos 1745 Rocket 4.1 07:18:54 16° W 07:24:09 65° N 07:30:31 10° ENE
Cosmos 1536 4.0 07:20:53 10° S 07:24:42 44° ESE 07:28:32 10° NNE
Okean 1-7 4.2 07:26:41 24° W 07:26:41 24° W 07:29:58 10° SW
Meteor 2-21 4.5 07:24:03 23° WNW 07:27:58 66° N 07:34:01 10° E
Meteor 2-21 Rocket 4.5 07:24:32 22° WNW 07:28:33 65° N 07:34:37 10° E
OBJECT-B 3.2 07:26:23 10° NNE 07:29:03 23° E 07:31:43 10° SE
CZ-2C R/B 3.8 07:24:27 10° NNE 07:29:06 49° ESE 07:33:51 10° S
ALOS 2.2 07:24:25 10° NE 07:29:07 74° NNW 07:33:48 10° WSW
Cosmos 1184 Rocket 2.7 07:28:11 33° W 07:29:30 65° NNW 07:32:45 10° ENE
Cosmos 1441 Rocket 3.1 07:28:19 27° W 07:30:14 66° N 07:34:00 10° ENE
Terra 4.1 07:28:39 10° NNE 07:31:42 16° ENE 07:34:43 10° E
Cosmos 1743 4.3 07:28:25 10° SSE 07:32:02 37° E 07:35:39 10° NNE
CBERS-1 4.0 07:27:58 10° E 07:33:07 70° N 07:36:32 21° WNW
YAOGAN 6 2.4 07:30:44 10° NE 07:34:19 88° NW 07:37:50 10° SW
AQUARIUS 4.4 07:30:10 10° NE 07:34:42 72° SE 07:39:13 10° SSW
Meteor 1-29 3.2 07:31:23 10° E 07:34:48 56° NNE 07:36:00 34° NW
Cosmos 1328 4.0 07:33:27 30° NW 07:35:15 61° NNE 07:39:16 10° ESE
Meteor 1-11 4.3 07:31:54 23° WNW 07:35:45 77° NNE 07:41:37 10° ESE
Cosmos 2366 rocket 4.0 07:30:31 10° SW 07:36:49 89° SE 07:43:03 10° NE
IRS-1D 3.4 07:32:07 10° E 07:37:04 70° N 07:40:19 22° WNW
Cosmos 1378 Rocket 4.1 07:35:26 28° NW 07:37:12 40° W 07:41:22 10° SSW
Cosmos 2221 Rocket 4.4 07:36:33 27° WNW 07:37:48 32° W 07:41:48 10° SSW
Cosmos 1633 Rocket 3.0 07:34:19 10° SW 07:38:45 88° NW 07:43:12 10° NE
ARGOS Delta rocket 4.0 07:33:46 10° NE 07:39:01 62° NNW 07:44:00 10° WSW
Cosmos 2227 Rocket 3.5 07:35:43 14° W 07:39:39 30° SW 07:44:32 10° SSE
Cosmos 2278 Rocket 4.1 07:35:26 10° SSW 07:40:24 32° SSE 07:45:23 10° E
Cosmos 2218 Rocket 4.0 07:34:55 10° SW 07:41:09 89° NW 07:47:21 10° NE
MTI 3.9 07:40:41 10° SSE 07:43:46 58° WSW 07:44:45 37° WNW
Cosmos 1953 Rocket 3.8 07:41:26 26° NW 07:43:49 60° NNE 07:48:17 10° E
Cosmos 405 Rocket 2.6 07:40:00 10° WSW 07:43:52 78° NNW 07:47:51 10° ENE
USA 186 3.6 07:41:24 10° NE 07:44:06 29° E 07:46:55 10° SSE
Cosmos 1076 Rocket 3.7 07:42:21 25° WNW 07:44:42 55° N 07:49:02 10° ENE
Cosmos 1666 3.3 07:41:13 10° SSW 07:44:58 57° ESE 07:48:46 10° NE
SAR-Lupe-2 4.1 07:41:32 10° S 07:45:02 45° WSW 07:46:23 30° WNW
In-Cosmos 22 4.4 07:41:40 23° NW 07:45:12 59° WSW 07:50:47 10° SSE
Cosmos 1627 Rocket 4.5 07:41:08 23° NW 07:45:12 75° NE 07:51:22 10° ESE
NOAA 6 4.1 07:40:58 10° NE 07:46:09 80° SE 07:51:18 10° SW
Meteor 1-31 Rocket 2.7 07:42:21 10° NE 07:46:14 67° NNW 07:50:04 10° WSW
Meteor 2-17 Rocket 4.4 07:40:21 10° WSW 07:46:27 70° NNW 07:52:35 10° ENE
Envisat 3.0 07:41:30 10° NE 07:46:39 86° SE 07:51:47 10° SW
IRS-P3 4.1 07:41:20 10° E 07:46:41 73° N 07:50:52 17° W
Resurs 01 Rocket 3.6 07:43:40 10° NNE 07:47:27 26° E 07:51:13 10° SE
Cosmos 1709 Rocket 4.0 07:42:10 10° W 07:48:32 65° NNW 07:54:49 10° ENE
SJ-12 3.8 07:45:25 10° NE 07:49:30 72° NNW 07:53:35 10° WSW
Cosmos 1500 3.4 07:46:20 10° SSW 07:50:07 73° SE 07:53:58 10° NE
CZ-4B R/B 3.5 07:47:29 10° NE 07:51:10 66° NNW 07:54:49 10° WSW
Cosmos 1844 Rocket 4.1 07:46:28 10° WSW 07:51:40 38° S 07:56:52 10° ESE
Cosmos 962 Rocket 4.5 07:45:21 10° SW 07:51:45 79° NW 07:58:05 10° NE
Cosmos 1346 Rocket 2.8 07:49:54 26° WNW 07:52:02 68° NNE 07:56:02 10° E
Cosmos 1869 Rocket 4.0 07:47:50 10° SSW 07:52:18 67° ESE 07:56:48 10° NE
Cosmos 2058 3.1 07:50:54 26° WNW 07:53:05 55° N 07:57:14 10° E
Cosmos 2123 Rocket 4.5 07:49:21 20° NNW 07:53:05 39° W 07:58:43 10° SSW
CZ-2C R/B 2.2 07:49:10 10° ENE 07:53:46 66° NNW 07:58:19 10° W
H-2A R/B 2.7 07:50:01 10° NE 07:53:57 76° NW 07:57:53 10° WSW
Meteor 1-21 Rocket 4.2 07:50:12 22° NW 07:54:02 88° NNE 07:59:43 10° SE
Cosmos 1825 Rocket 3.6 07:52:05 26° NW 07:54:26 62° NNE 07:58:46 10° ESE
CZ-2D R/B 3.7 07:51:07 10° NE 07:55:01 64° ESE 07:58:54 10° SSW
PSLV R/B 3.7 07:52:04 10° NE 07:56:02 85° NW 07:59:54 10° SW
AQUA 3.9 07:51:40 10° E 07:56:26 69° NNE 07:59:30 22° WNW
Okean 1-7 Rocket 3.6 07:54:44 26° NW 07:57:15 83° NE 08:01:44 10° SE
NPP 3.7 07:53:03 10° ESE 07:58:28 77° NNE 08:02:20 20° WNW
Cosmos 1703 3.3 07:56:38 27° NW 07:58:41 68° NNE 08:02:38 10° ESE
Cosmos 1674 Rocket 4.4 07:57:19 25° NW 07:58:51 32° W 08:02:45 10° SSW
Nadezhda 4 Rocket 4.0 07:54:48 21° NW 07:59:16 88° NE 08:05:39 10° SE
SJ 16-02 2.2 07:55:39 10° WSW 07:59:58 51° S 08:04:17 10° ESE
In-Cosmos 22 Rocket 4.2 07:55:45 18° WNW 08:00:01 75° NNE 08:05:50 10° E
CZ-2D R/B 2.2 07:54:42 10° ESE 08:00:06 78° NNE 08:03:58 20° WNW
SL-14 R/B 3.2 07:58:59 28° NW 08:00:59 75° SW 08:04:52 10° SSE
Cosmos 1610 Rocket 4.5 07:54:45 10° WSW 08:01:09 72° NNW 08:07:31 10° NE
Meteor 2-3 Rocket 3.7 07:55:33 10° W 08:01:24 75° N 08:07:16 10° ENE
Meteor 2-5 Rocket 3.9 07:58:35 22° NW 08:02:29 70° SW 08:08:12 10° SSE
Cosmos 1842 4.1 08:01:42 26° WNW 08:03:04 34° W 08:06:39 10° SSW
Cosmos 1655 Rocket 4.1 07:58:36 20° NW 08:03:09 70° NNE 08:09:30 10° ESE
Cosmos 1500 Rocket 3.5 07:59:19 10° WSW 08:03:41 63° NNW 08:08:06 10° ENE
H-2A R/B 4.5 08:00:59 10° SSW 08:04:35 29° W 08:05:55 24° WNW
FENGYUN 3A 3.6 07:59:10 10° ENE 08:04:37 75° NNW 08:10:03 10° WSW
CORIOLIS 4.4 08:00:17 10° NE 08:05:48 77° SE 08:11:17 10° SW
Aureole 2 Rocket 4.0 08:03:54 10° SW 08:06:14 26° S 08:08:38 10° ESE
Cosmos 1898 Rocket 4.4 08:01:21 10° WSW 08:06:30 50° S 08:11:39 10° ESE
Cosmos 1733 Rocket 3.8 08:02:24 10° S 08:06:46 55° ESE 08:11:09 10° NE
FengYun 1-2 T 4.5 08:01:25 10° NE 08:06:57 74° SE 08:12:29 10° SW
NOAA 12 4.2 08:01:54 10° NE 08:07:15 81° SE 08:12:33 10° SW
Cosmos 2154 Rocket 4.0 08:02:12 10° WSW 08:08:32 71° NNW 08:14:55 10° ENE
CBERS 1 LM4 rocket 4.3 08:04:40 10° ENE 08:09:26 73° NNW 08:14:17 10° W
Cosmos 1939 Rocket 3.0 08:05:59 10° NE 08:10:03 77° SE 08:14:11 10° SSW
Sich 1 3.0 08:05:38 10° WSW 08:10:04 70° NNW 08:14:30 10° NE
Cosmos 1428 Rocket 4.5 08:06:42 21° NW 08:11:05 80° NE 08:17:20 10° SE
Cosmos 2151 3.1 08:08:24 20° WNW 08:11:13 55° N 08:15:25 10° ENE
Cosmos 2297 Rocket 3.7 08:07:48 12° W 08:11:54 26° SW 08:16:30 10° S
Intercosmos 25 Rocket 4.2 08:07:09 19° NW 08:12:02 72° NNE 08:16:19 10° ESE
Cosmos 1809 Rocket 4.5 08:08:10 19° WNW 08:12:38 71° NNE 08:18:45 10° ESE
Cosmos 1934 Rocket 4.2 08:06:16 10° SSW 08:12:40 77° ESE 08:19:03 10° NE
ADEOS 3.5 08:08:03 10° ENE 08:13:19 78° NNW 08:18:35 10° WSW
Cosmos 864 Rocket 4.5 08:07:18 10° SW 08:13:42 82° NW 08:20:04 10° NE
Cosmos 1937 Rocket 4.4 08:08:43 10° WSW 08:13:47 50° S 08:18:53 10° E
MOS 1-B 4.5 08:08:23 10° NE 08:14:16 82° SE 08:20:08 10° SW
CZ-2C R/B 3.8 08:11:18 10° WSW 08:15:14 21° WNW 08:15:52 20° NW
Cosmos 1674 3.0 08:14:44 26° NW 08:16:33 52° WSW 08:20:14 10° S
Cosmos 1862 3.3 08:12:58 10° WSW 08:17:01 60° NNW 08:21:02 10° ENE
Thor Agena Rocket 3.8 08:12:09 10° SSE 08:17:10 58° WSW 08:20:29 21° NW
SMAP 3.1 08:12:59 10° NE 08:17:42 88° SE 08:22:24 10° SW
Cosmos 2098 Rocket 3.1 08:15:23 25° NW 08:17:44 70° NE 08:22:45 10° ESE
Cosmos 1295 Rocket 4.4 08:12:11 10° WSW 08:18:19 71° NNW 08:24:32 10° ENE
Meteor 1-20 Rocket 4.3 08:12:28 10° SW 08:18:20 90° SE 08:24:15 10° NE
Cosmos 2327 Rocket 4.4 08:12:34 10° WSW 08:18:41 69° NNW 08:24:52 10° ENE
SL-8 Rocket 3.9 08:12:29 10° SW 08:18:42 78° NW 08:25:01 10° NE
Cosmos 2263 Rocket 3.6 08:13:56 10° W 08:19:03 35° SSW 08:24:09 10° SE
CZ-4B DEB 4.2 08:14:14 10° NE 08:19:45 87° SE 08:25:16 10° SW
CZ-4 R/B 1.9 08:15:39 10° NE 08:19:50 66° ESE 08:24:04 10° SSW
CSL-04 Rocket 4.5 08:15:34 10° NE 08:20:46 53° ESE 08:25:59 10° S
Meteor 1-24 Rocket 3.9 08:16:49 20° NW 08:20:52 69° WSW 08:26:28 10° SSE
Cosmos 2074 Rocket 4.0 08:15:06 10° W 08:21:19 66° NNW 08:27:35 10° ENE
Cosmos 1025 Rocket 3.4 08:19:00 24° NW 08:21:20 49° WSW 08:25:29 10° S
Okean O Rocket 1.7 08:16:54 10° NE 08:21:22 86° SE 08:25:53 10° SW
ARIANE 5 R/B 2.5 08:16:20 10° E 08:21:28 71° N 08:26:03 14° WNW
Helios 1B rocket 2.4 08:17:24 10° ESE 08:21:31 82° NE 08:24:03 23° NW
Tsikada Rocket 4.2 08:17:14 19° NNW 08:21:50 61° WSW 08:28:09 10° S
Cosmos 1536 Rocket 3.8 08:19:28 23° NW 08:21:57 55° WSW 08:26:12 10° S
Helios 1A Rocket 3.5 08:18:05 10° NE 08:22:08 58° ESE 08:26:11 10° SSW
Cosmos 1959 Rocket 4.5 08:16:00 10° SW 08:22:23 80° NW 08:28:48 10° NE
METEOR-M 4.1 08:17:12 10° ENE 08:22:34 74° NNW 08:27:55 10° W
SJ-6F 4.5 08:18:54 10° ENE 08:23:03 60° NNW 08:27:13 10° W
PSLV R/B 3.7 08:18:51 10° SE 08:23:24 84° SW 08:26:29 22° NW
Cosmos 1470 Rocket 3.4 08:20:41 10° SW 08:25:04 80° NW 08:29:27 10° NE
Cosmos 2266 Rocket 4.1 08:20:42 18° NW 08:25:38 72° NNE 08:32:05 10° ESE
HJ-1C 4.0 08:22:22 10° NE 08:25:39 57° ESE 08:28:55 10° SSW
PSLV R/B 3.6 08:22:17 10° ENE 08:26:38 61° N 08:30:59 10° W
Cosmos 1408 Rocket 3.6 08:22:57 10° W 08:27:20 57° N 08:31:41 10° ENE
Cosmos 1766 Rocket 3.7 08:23:35 13° W 08:27:31 56° N 08:31:53 10° ENE
ASTEX 1 3.8 08:22:58 10° SE 08:27:45 55° NE 08:31:02 20° NNW
CZ-2D R/B 3.5 08:24:16 10° E 08:28:19 58° N 08:31:09 18° WNW
Meteor 2-14 Rocket 4.5 08:24:17 18° WNW 08:29:03 72° NNE 08:35:09 10° ESE
CZ-4B R/B 3.1 08:24:31 10° ENE 08:29:03 69° NNW 08:33:31 10° WSW
Okean-O 3.1 08:24:55 10° NE 08:29:22 65° ESE 08:33:49 10° SSW
ERS-1 4.4 08:24:32 10° E 08:29:34 71° N 08:33:56 14° WNW
Ariane Rocket 4.2 08:24:45 10° NNE 08:29:37 43° ESE 08:34:26 10° S
Cosmos 1743 Rocket 3.6 08:25:47 10° W 08:30:16 60° NNW 08:34:43 10° ENE
IDEFIX/ARIANE 42P 2.5 08:25:08 10° E 08:30:19 69° N 08:34:57 13° WNW
deb Chang Zheng 4 3.5 08:26:03 10° ENE 08:30:24 71° NNW 08:34:45 10° WSW
Cosmos 1238 Rocket 2.3 08:27:36 10° SW 08:30:47 90° SE 08:34:28 10° NE
SJ-7 4.3 08:26:57 10° NE 08:30:59 72° NNW 08:35:05 10° WSW
MSX 3.8 08:26:09 10° E 08:31:54 74° N 08:37:39 10° WNW
USA 81 4.1 08:26:47 10° WSW 08:32:01 57° NW 08:37:15 10° NE
ASTRO F (AKARI) 4.0 08:28:56 10° NE 08:32:02 71° NNW 08:35:09 10° WSW
Cosmos 1758 Rocket 3.5 08:30:10 22° NW 08:32:56 73° NE 08:37:17 10° ESE
Meteor 1-11 Rocket 4.1 08:27:45 10° SSW 08:33:22 70° SE 08:39:07 10° NE
Cosmos 2341 Rocket 3.9 08:27:30 10° WSW 08:33:47 73° NNW 08:40:08 10° NE
Cosmos 1821 Rocket 4.0 08:29:10 10° SW 08:35:21 88° NW 08:41:40 10° NE
Meteor 2-13 Rocket 4.5 08:30:57 19° NW 08:35:26 82° SW 08:41:32 10° SSE
PAYLOAD A 4.1 08:30:04 10° E 08:35:30 69° N 08:40:55 10° W
NOAA 11 4.3 08:30:01 10° NE 08:35:33 85° SE 08:41:06 10° SW
Cosmos 1092 Rocket 4.0 08:31:51 19° NW 08:36:38 90° WSW 08:42:59 10° SE
ARGOS 3.8 08:32:33 10° NE 08:37:55 59° ESE 08:43:15 10° SSW
Cosmos 1356 3.3 08:35:03 10° WSW 08:38:29 74° NNW 08:41:57 10° ENE
Cosmos 1626 Rocket 3.5 08:36:44 22° NW 08:39:33 88° NE 08:43:54 10° SE
Cosmos 1633 2.7 08:37:26 19° WNW 08:39:43 49° N 08:43:15 10° ENE
Cosmos 1408 2.8 08:37:51 23° NW 08:39:59 55° NNE 08:43:39 10° E
COSMOS 2441 4.4 08:35:31 10° E 08:40:17 64° N 08:44:47 12° WNW
CZ-4B R/B 3.2 08:35:35 10° NE 08:40:56 85° SE 08:46:23 10° SW
EO 1 Del DPAF 3.6 08:37:46 10° SSE 08:41:28 54° WSW 08:43:40 22° NW
Cosmos 1484 Rocket 2.8 08:38:18 10° ENE 08:41:57 52° NNW 08:45:36 10° W
PAYLOAD B 4.2 08:37:22 10° NE 08:42:57 89° SE 08:48:31 10° WSW
Spot 4 Rocket 4.0 08:38:41 10° E 08:43:51 72° N 08:49:01 10° WNW
Cosmos 1340 2.6 08:41:49 21° NW 08:44:15 84° NNE 08:48:04 10° ESE
SL-08 RB Rocket 4.4 08:39:55 10° NE 08:44:35 58° ESE 08:49:12 10° SSW
Meteor PRIRODA 3.7 08:41:50 10° ENE 08:45:33 59° NNW 08:49:15 10° W
Cosmos 2184 Rocket 4.0 08:39:47 10° W 08:46:11 65° NNW 08:52:34 10° ENE
Landsat 4 3.7 08:42:45 10° SE 08:46:35 87° SW 08:49:01 22° NW
Cosmos 1602 3.7 08:42:46 10° WSW 08:46:44 70° NNW 08:50:41 10° NE
Cosmos 1892 Rocket 3.7 08:43:49 21° NW 08:46:47 72° WSW 08:51:14 10° SSE
Meteor 2-12 Rocket 4.4 08:40:42 10° WSW 08:46:53 72° NNW 08:53:04 10° ENE
IRS-1C 4.1 08:41:42 10° E 08:47:04 76° NNE 08:52:03 12° WNW
Cosmos 2026 Rocket 3.9 08:42:42 18° NW 08:47:22 89° NE 08:53:29 10° SE
Cosmos 1626 2.5 08:45:37 23° NW 08:47:42 50° WSW 08:51:19 10° S
Cosmos 1805 Rocket 3.6 08:43:38 10° W 08:48:05 61° NNW 08:52:32 10° ENE
YAOGAN 1 2.8 08:44:09 10° NE 08:48:31 73° SE 08:52:52 10° SSW
Meteor 2-19 Rocket 4.5 08:45:21 18° NW 08:50:08 87° NE 08:56:20 10° SE
Resurs 1-4 Rocket 2.1 08:45:25 10° ESE 08:50:47 88° NE 08:55:05 16° NW
Cosmos 1892 2.8 08:48:48 21° NW 08:51:13 61° NNE 08:55:02 10° ESE
Cosmos 1975 Rocket 4.0 08:49:53 20° NW 08:52:15 34° W 08:56:18 10° SSW
CZ-2C R/B 2.9 08:48:58 10° E 08:52:47 54° N 08:55:44 16° WNW
Cosmos 1933 Rocket 3.5 08:50:15 10° WSW 08:54:45 76° NW 08:59:16 10° NE
H-2A R/B 2.2 08:51:13 10° NE 08:55:09 76° NNW 08:59:01 10° WSW
CZ-4B R/B 3.4 08:50:57 10° ESE 08:55:56 79° NNE 09:00:09 14° WNW
Cosmos 1666 Rocket 3.5 08:51:38 10° WSW 08:56:01 64° NNW 09:00:26 10° ENE
CZ-4 R/B 4.0 08:51:11 10° SE 08:56:03 75° SW 08:59:47 18° NW
Cosmos 1908 Rocket 4.2 08:52:21 10° SSW 08:56:38 58° ESE 09:00:56 10° NE
Meteor 1-14 Rocket 4.4 08:50:48 10° SW 08:56:41 89° WNW 09:02:43 10° NE
Okean 3 Rocket 3.7 08:52:34 11° WNW 08:56:50 57° N 09:01:19 10° E
Cosmos 1707 3.8 08:56:11 21° NW 08:57:59 30° W 09:01:27 10° SSW
ADEOS II 2.1 08:52:56 10° ESE 08:58:13 80° NNE 09:02:50 14° WNW
SL-16 R/B 4.3 08:57:14 12° N 08:59:17 13° NNE 09:02:15 10° NE
Cosmos 1602 Rocket 3.5 08:56:21 20° NW 08:59:24 89° SSW 09:03:47 10° SE
Cosmos 1825 2.3 08:57:30 20° NW 08:59:59 56° NNE 09:03:44 10° E
Okean 2 Rocket 4.3 08:55:58 10° SSE 09:00:12 40° E 09:04:28 10° NNE
SJ-6B 3.6 08:56:32 10° NE 09:00:16 51° ESE 09:03:57 10° S
Cosmos 1536 2.8 08:56:57 10° SW 09:00:57 84° SE 09:04:59 10° NE
H-2A R/B 2.2 08:56:47 10° NE 09:01:49 72° SE 09:06:46 10° SSW
OBJECT-B 1.8 08:58:49 10° NE 09:02:00 47° ESE 09:05:11 10° S
Cosmos 1184 Rocket 2.8 09:01:05 16° WNW 09:03:31 60° N 09:06:45 10° E
GP-B 4.3 09:01:21 18° N 09:03:46 29° NE 09:07:41 10° E
Meteor 1-25 Rocket 4.2 08:58:44 10° WSW 09:04:21 82° NNW 09:10:03 10° ENE
SL-19 R/B 4.4 09:01:01 10° ENE 09:04:54 79° NNW 09:09:24 10° WSW
Cosmos 1782 Rocket 4.3 09:01:23 10° S 09:05:37 53° ESE 09:09:54 10° NNE
ALOS 2.3 09:01:46 10° ENE 09:06:25 62° N 09:11:03 10° W
Cosmos 1441 Rocket 3.1 09:03:23 15° WNW 09:06:29 68° NNE 09:10:15 10° E
Meteor 1-29 2.9 09:03:57 10° SE 09:07:25 84° NE 09:09:37 21° NW
Cosmos 1743 3.0 09:03:38 10° SSW 09:07:32 73° ESE 09:11:26 10° NE
YAOGAN 6 2.5 09:04:16 10° NE 09:07:45 55° NNW 09:11:12 10° WSW
CZ-2C R/B 2.9 09:04:42 10° NE 09:09:30 83° SE 09:14:23 10° SW
IRIDIUM 106 4.5 09:04:50 10° S 09:10:04 77° ESE 09:15:19 10° NNE
Cosmos 1745 Rocket 4.1 09:03:54 10° WNW 09:10:17 66° NNE 09:16:39 10° E
Terra 3.5 09:06:53 10° NNE 09:11:00 28° E 09:15:06 10° SE
Spot 2 4.5 09:06:03 10° ENE 09:11:13 78° NNW 09:16:24 10° WSW
Cosmos 1975 3.4 09:07:33 10° SSW 09:11:35 60° ESE 09:15:39 10° NE
AQUARIUS 4.1 09:07:05 10° NE 09:11:37 76° NNW 09:16:08 10° WSW
Cosmos 1328 3.8 09:09:00 20° NW 09:11:47 89° S 09:15:50 10° SE
CBERS-1 4.0 09:07:04 10° ESE 09:12:14 82° NNE 09:16:54 13° WNW
Cosmos 2061 Rocket 4.4 09:06:56 10° S 09:13:05 64° ESE 09:19:14 10° NNE
SL-24 R/B 4.3 09:07:56 10° NE 09:13:07 82° NNW 09:17:45 10° WSW
Meteor 2-21 4.4 09:08:11 15° NW 09:13:24 80° NE 09:19:30 10° SE
Meteor 2-21 Rocket 4.4 09:08:41 14° NW 09:14:03 77° NNE 09:20:09 10° ESE
USA 186 2.0 09:12:06 10° NE 09:15:05 66° ESE 09:18:12 10° SSW
IRS-1D 3.4 09:11:21 10° ESE 09:16:19 83° NNE 09:20:47 13° NW
Cosmos 1633 Rocket 3.0 09:12:28 10° WSW 09:16:52 62° NNW 09:21:15 10° ENE
ARGOS Delta rocket 4.2 09:12:09 10° ENE 09:17:22 54° N 09:22:19 10° WNW
FREGAT/IRIS 2.9 09:15:43 10° NE 09:18:10 50° ESE 09:20:36 10° SSW
Meteor 1-11 4.4 09:14:12 15° NW 09:19:14 83° SW 09:25:05 10° SE
ARIANE 5 R/B 4.0 09:15:45 10° NNE 09:19:56 36° E 09:24:04 10° SSE
SL-08 R/B 4.4 09:13:53 10° WSW 09:20:08 73° NNW 09:26:19 10° NE
Cosmos 405 Rocket 2.7 09:16:17 10° W 09:20:09 64° N 09:24:07 10° E
Meteor 1-31 Rocket 2.8 09:16:41 10° ENE 09:20:30 54° N 09:24:17 10° W
Cosmos 1666 2.6 09:16:43 10° SW 09:20:32 79° NW 09:24:25 10° NE
Cosmos 1544 3.3 09:17:49 10° SSW 09:21:32 74° SE 09:25:15 10° NE
Cosmos 1802 Rocket 4.4 09:15:39 10° SSW 09:22:03 70° ESE 09:28:24 10° NNE
Cosmos 1953 Rocket 3.6 09:18:35 17° NW 09:22:05 80° NE 09:26:37 10° SE
Cosmos 2100 Rocket 4.2 09:16:09 10° SSW 09:22:20 75° ESE 09:28:30 10° NNE
Cosmos 2227 Rocket 4.0 09:18:17 10° WNW 09:22:22 21° WSW 09:26:27 10° SSW
Cosmos 2366 rocket 3.9 09:16:22 10° WSW 09:22:38 69° NNW 09:28:49 10° ENE
Cosmos 1605 Rocket 4.0 09:16:28 10° SW 09:22:38 90° SE 09:28:47 10° NE
Cosmos 1076 Rocket 3.6 09:19:08 15° NW 09:22:42 64° NNE 09:27:04 10° ESE
Cosmos 2278 Rocket 3.8 09:18:21 10° WSW 09:23:32 38° S 09:28:44 10° ESE
SPOT 5 4.3 09:20:17 10° NNE 09:24:20 31° E 09:28:31 10° SSE
SJ-12 3.9 09:20:38 10° ENE 09:24:39 56° N 09:28:39 10° W
Resurs 01 Rocket 2.6 09:20:33 10° NNE 09:24:53 47° ESE 09:29:13 10° S
NOAA 6 4.0 09:20:25 10° ENE 09:25:34 77° NNW 09:30:42 10° WSW
Envisat 2.9 09:20:40 10° ENE 09:25:45 72° NNW 09:30:51 10° WSW
Cosmos 1500 3.1 09:22:03 10° WSW 09:25:51 68° NNW 09:29:40 10° NE
CZ-4B R/B 3.7 09:22:34 10° ENE 09:26:12 53° N 09:29:47 10° W
IRS-P3 4.1 09:21:18 10° ESE 09:26:41 83° NNE 09:32:05 10° WNW
Cosmos 1459 Rocket 4.3 09:20:39 10° SSW 09:26:56 75° ESE 09:33:19 10° NNE
Cosmos 2218 Rocket 3.9 09:20:54 10° WSW 09:27:05 68° NNW 09:33:15 10° ENE
Meteor 2-16 Rocket 4.5 09:22:18 13° NW 09:27:59 78° NE 09:34:11 10° ESE
H-2A R/B 2.9 09:24:09 10° ENE 09:28:00 55° NNW 09:31:51 10° W
Cosmos 1346 Rocket 2.8 09:25:24 16° NW 09:28:38 89° NE 09:32:39 10° SE
CZ-2D R/B 3.2 09:25:37 10° NE 09:29:32 75° NW 09:33:26 10° WSW
Cosmos 1869 Rocket 3.5 09:25:45 10° SW 09:30:17 77° NW 09:34:49 10° NE
Cosmos 2058 2.9 09:27:06 16° NW 09:30:25 68° NNE 09:34:39 10° ESE
PSLV R/B 3.8 09:26:37 10° ENE 09:30:32 60° NNW 09:34:22 10° W
IRS-1C Rocket 4.2 09:25:21 10° NE 09:30:41 85° SE 09:36:01 10° SW
Meteor 2-17 Rocket 4.4 09:25:49 10° WNW 09:31:53 65° N 09:38:01 10° E
CZ-2C R/B 2.2 09:27:17 10° E 09:31:54 65° N 09:36:27 10° WNW
Cosmos 1825 Rocket 3.5 09:29:12 17° NW 09:32:34 89° NE 09:36:56 10° SE
AQUA 3.8 09:29:25 10° SE 09:34:13 90° N 09:38:23 14° NW
Cosmos 1709 Rocket 4.1 09:28:16 10° WNW 09:34:38 65° NNE 09:40:55 10° E
Cosmos 1844 Rocket 4.3 09:29:33 10° W 09:34:41 35° SSW 09:39:47 10° SE
Cosmos 1703 3.4 09:31:59 18° NW 09:34:53 74° SW 09:38:51 10° SSE
Okean 1-7 Rocket 3.9 09:32:11 18° NW 09:35:25 59° WSW 09:39:48 10° SSE
SL-14 R/B 4.1 09:34:25 18° NW 09:36:53 38° WSW 09:40:31 10° S
SJ 16-02 2.5 09:33:55 10° W 09:38:08 43° SSW 09:42:21 10° SE
NPP 3.7 09:33:24 10° SE 09:38:50 82° SW 09:43:49 13° NW
Aureole 2 Rocket 4.1 09:36:35 10° WSW 09:38:55 26° SSW 09:41:19 10° SE
Cosmos 2239 Rocket 4.4 09:33:48 10° WSW 09:39:59 75° NW 09:46:12 10° NE
CZ-2D R/B 2.3 09:34:55 10° SE 09:40:19 79° SW 09:45:18 13° NW
Cosmos 1386 Rocket 4.5 09:34:30 10° WNW 09:40:45 68° NNE 09:46:53 10° ESE
USA 32 4.1 09:35:35 10° SSW 09:40:52 87° ESE 09:46:11 10° NNE
Cosmos 1500 Rocket 3.6 09:37:41 10° WNW 09:42:01 56° N 09:46:24 10° E
In-Cosmos 22 Rocket 4.3 09:37:31 11° NW 09:43:01 89° SW 09:48:52 10° SE
Cosmos 1535 Rocket 4.4 09:38:13 10° SW 09:44:24 79° NW 09:50:34 10° NE
Cosmos 1943 Rocket 4.1 09:39:35 10° SW 09:44:28 33° SSE 09:49:24 10° E
Cosmos 1300 Rocket 4.3 09:40:16 10° S 09:44:29 52° ESE 09:48:45 10° NE
Nadezhda 4 Rocket 4.3 09:39:22 16° NNW 09:44:31 62° WSW 09:50:46 10° S
Cosmos 1733 Rocket 3.1 09:40:02 10° SW 09:44:31 87° NW 09:49:02 10° NE
SJ-11-01 4.3 09:39:54 10° NE 09:44:43 88° SE 09:49:30 10° SW
FENGYUN 3A 3.6 09:39:26 10° E 09:44:52 70° N 09:50:17 10° WNW
Cosmos 1939 Rocket 2.8 09:41:02 10° NE 09:45:04 68° NNW 09:49:09 10° WSW
Meteor 2-3 Rocket 3.8 09:39:13 10° WNW 09:45:05 76° NNE 09:50:56 10° ESE
Meteor 2-5 Rocket 4.5 09:41:03 16° NW 09:45:27 43° W 09:50:51 10° SSW
CORIOLIS 4.1 09:40:45 10° ENE 09:46:15 80° NNW 09:51:44 10° WSW
NOAA 12 4.0 09:41:53 10° ENE 09:47:12 76° NNW 09:52:29 10° WSW
FengYun 1-2 T 4.2 09:42:39 10° ENE 09:48:10 81° NNW 09:53:43 10° WSW
Sich 1 3.1 09:43:49 10° W 09:48:12 56° N 09:52:33 10° ENE
CBERS 1 LM4 rocket 4.3 09:43:45 10° E 09:48:29 71° N 09:53:20 10° WNW
Cosmos 2151 3.0 09:45:00 11° WNW 09:49:00 63° NNE 09:53:15 10° ESE
Cosmos 1655 Rocket 4.1 09:43:32 14° NW 09:49:14 88° SW 09:55:35 10° SE
Cosmos 2173 Rocket 4.1 09:43:39 10° SSW 09:49:53 82° ESE 09:56:03 10° NE
Cosmos 1470 4.4 09:46:46 10° SSE 09:50:14 29° E 09:53:43 10° NNE
SL-08 R/B 4.5 09:44:27 10° NW 09:50:36 73° NNE 09:56:46 10° ESE
Cosmos 1674 4.0 09:49:32 17° NW 09:51:34 26° W 09:54:45 10° SW
CSL-04 Debris 4.3 09:46:06 10° NE 09:51:38 80° SE 09:57:06 10° SW
ADEOS 3.5 09:47:34 10° E 09:52:49 73° N 09:58:03 10° WNW
Spot 2 Rocket 4.5 09:48:21 10° NNE 09:53:17 45° ESE 09:58:10 10° S
Cosmos 1862 3.4 09:49:51 10° WNW 09:53:52 53° N 09:57:51 10° E
Cosmos 2297 Rocket 4.2 09:50:56 10° WNW 09:54:24 17° WSW 09:57:52 10° SSW
Cosmos 2154 Rocket 4.0 09:48:26 10° W 09:54:43 64° N 10:01:04 10° E
CZ-4 R/B 1.4 09:50:51 10° NE 09:55:02 78° NW 09:59:17 10° WSW
SMAP 3.0 09:50:26 10° ENE 09:55:05 69° NNW 09:59:45 10° W
MOS 1-B 4.3 09:50:25 10° ENE 09:56:17 81° NNW 10:02:08 10° W
Helios 1B rocket 2.8 09:52:56 10° SSE 09:57:01 61° WSW 10:00:21 15° NW
Cosmos 2369 Rocket 4.1 09:52:28 10° SW 09:57:30 33° SSE 10:02:34 10° E
Helios 1A Rocket 2.8 09:53:27 10° NE 09:57:33 85° NW 10:01:39 10° WSW
CZ-2C R/B 4.3 09:55:06 10° WNW 09:57:22 13° NW 09:57:22 13° NW
Okean O Rocket 1.6 09:53:21 10° ENE 09:57:47 69° NNW 10:02:14 10° WSW
Cosmos 1809 Rocket 4.5 09:52:20 13° NW 09:57:57 87° SW 10:04:05 10° SE
Cosmos 1934 Rocket 4.0 09:51:43 10° WSW 09:58:07 76° NW 10:04:33 10° NE
HJ-1C 3.2 09:55:01 10° NE 09:58:20 74° NW 10:01:39 10° SW
Cosmos 1025 Rocket 4.3 09:55:54 16° NW 09:58:21 27° W 10:01:56 10° SW
Cosmos 2098 Rocket 3.3 09:55:47 16° NW 09:59:00 73° WSW 10:04:09 10° SSE
Cosmos 1953 4.1 09:56:17 10° SE 09:59:37 25° E 10:02:58 10° NNE
Cosmos 2151 Rocket 4.3 09:55:59 10° S 10:00:17 53° ESE 10:04:36 10° NNE
CZ-4B DEB 4.1 09:55:03 10° ENE 10:00:32 77° NNW 10:06:02 10° W
MetOp-A 4.4 09:55:08 10° NE 10:00:32 72° SE 10:05:56 10° SSW
PSLV R/B 4.3 09:56:08 10° S 10:00:32 50° WSW 10:04:16 15° NW
ARIANE 5 R/B 2.5 09:55:25 10° ESE 10:00:35 85° NNE 10:05:49 10° NW
CSL-04 Rocket 3.7 09:56:18 10° NE 10:01:38 82° SE 10:06:59 10° SW
Meteor 1-20 Rocket 4.3 09:55:50 10° W 10:01:43 75° N 10:07:37 10° ENE
Cosmos 2263 Rocket 4.0 09:57:13 10° W 10:01:52 26° SW 10:06:30 10° S
Cosmos 1733 4.3 09:58:17 10° S 10:01:57 41° ESE 10:05:39 10° NNE
PSLV R/B 3.6 09:58:03 10° E 10:02:25 64° NNE 10:06:47 10° WNW
METEOR-M 4.1 09:57:13 10° E 10:02:34 70° N 10:07:54 10° WNW
Iridium 4 Rocket 3.8 09:59:15 10° SSE 10:03:13 42° ENE 10:06:33 15° NNE
Cosmos 1470 Rocket 3.5 09:58:59 10° W 10:03:19 59° NNW 10:07:37 10° ENE
Meteor 1-24 Rocket 4.5 09:59:00 15° NNW 10:03:31 42° W 10:08:46 10° SSW
CZ-2D R/B 3.4 09:59:42 10° ESE 10:03:49 71° NNE 10:07:47 10° NW
CZ-4B R/B 3.2 09:59:29 10° ENE 10:03:58 60° N 10:08:25 10° W
Cosmos 1295 Rocket 4.5 09:58:08 10° W 10:04:15 63° N 10:10:25 10° E
SL-8 Rocket 4.0 09:58:28 10° W 10:04:40 64° N 10:10:55 10° ENE
Cosmos 2327 Rocket 4.5 09:58:41 10° W 10:04:46 62° N 10:10:57 10° E
ASTRO F (AKARI) 4.3 10:01:47 10° ENE 10:04:50 53° N 10:07:53 10° W
Cosmos 1408 Rocket 3.6 10:01:17 10° WNW 10:05:40 58° NNE 10:10:01 10° E
Cosmos 1766 Rocket 3.6 10:01:28 10° WNW 10:05:54 62° NNE 10:10:17 10° ESE
Okean-O 2.6 10:01:36 10° NE 10:06:04 81° NW 10:10:32 10° WSW
SJ-7 4.4 10:02:13 10° ENE 10:06:11 57° N 10:10:12 10° W
deb Chang Zheng 4 3.5 10:01:54 10° E 10:06:13 66° N 10:10:32 10° WNW
ASTEX 1 3.4 10:01:44 10° SSE 10:06:40 89° W 10:10:32 17° NNW
Feng Yun 1-1 Rocket 4.2 10:01:55 10° ENE 10:07:27 86° NNW 10:12:53 10° WSW
Cosmos 2074 Rocket 4.0 10:01:15 10° WNW 10:07:28 64° N 10:13:42 10° E
Cosmos 1726 3.8 10:05:02 10° SSE 10:08:08 26° E 10:11:14 10° NNE
ERS-1 4.5 10:03:30 10° ESE 10:08:35 86° NNE 10:13:37 10° NW
Cosmos 1743 Rocket 3.7 10:04:11 10° WNW 10:08:39 57° N 10:13:05 10° E
Ariane Rocket 3.3 10:04:08 10° NE 10:09:14 71° SE 10:14:19 10° SSW
IDEFIX/ARIANE 42P 2.5 10:04:40 10° ESE 10:09:54 84° NNE 10:15:08 10° NW
SL-08 ROCKET BODY 4.5 10:04:06 10° NW 10:10:20 75° NNE 10:16:32 10° ESE
Cosmos 1238 Rocket 2.5 10:07:24 10° WSW 10:10:35 54° NNW 10:14:19 10° NE
Cosmos 1758 Rocket 3.7 10:07:19 15° NW 10:10:55 70° WSW 10:15:14 10° SSE
Cosmos 2266 Rocket 4.1 10:05:16 12° NW 10:11:18 86° SW 10:17:45 10° SSE
Cosmos 1725 Rocket 4.2 10:06:27 10° SSW 10:12:46 79° ESE 10:19:08 10° NE
Cosmos 1356 3.3 10:09:42 10° W 10:13:08 62° N 10:16:35 10° E
Resurs 1-3 3.9 10:09:11 10° NE 10:13:36 70° SE 10:18:01 10° SSW
Meteor 1-5 Rocket 4.3 10:07:34 10° WSW 10:13:37 80° NNW 10:19:35 10° ENE
MSX 3.8 10:07:53 10° ESE 10:13:40 85° NNE 10:19:27 10° WNW
Intercosmos 25 Rocket 4.1 10:07:53 12° NW 10:13:51 74° WSW 10:17:55 10° SSE
USA 81 4.3 10:08:49 10° W 10:13:56 47° N 10:19:03 10° ENE
Meteor 2-14 Rocket 4.5 10:08:21 11° NW 10:14:13 86° SW 10:20:20 10° SE
IRIDIUM 104 4.3 10:09:01 10° SSW 10:14:16 77° WNW 10:19:30 10° NNE
PAYLOAD A 4.1 10:08:53 10° ESE 10:14:20 75° NNE 10:19:48 10° WNW
Cosmos 2233 Rocket 4.3 10:08:22 10° SSW 10:14:41 73° ESE 10:21:01 10° NNE
Cosmos 1766 4.1 10:10:59 10° S 10:14:42 46° ESE 10:18:27 10° NE
Cosmos 1633 2.6 10:11:31 11° WNW 10:14:58 57° NNE 10:18:32 10° ESE
Cosmos 1340 Rocket 3.7 10:11:23 10° S 10:15:11 47° ESE 10:18:59 10° NE
Cosmos 1408 2.5 10:12:08 14° NW 10:15:16 81° NE 10:19:01 10° SE
Cosmos 1484 Rocket 2.8 10:12:29 10° E 10:16:08 52° NNE 10:19:48 10° WNW
NOAA 11 4.1 10:10:45 10° ENE 10:16:14 75° NNW 10:21:44 10° WSW
CZ-4 R/B 4.4 10:12:28 10° NE 10:16:36 68° NNW 10:20:44 10° WSW
Meteor 1-11 Rocket 3.7 10:11:11 10° WSW 10:16:52 84° NNW 10:22:42 10° ENE
Cosmos 1626 Rocket 4.0 10:13:51 15° NW 10:17:18 53° WSW 10:21:32 10° S
COSMOS 2441 4.3 10:13:30 10° ESE 10:18:19 77° NNE 10:23:08 10° NW
ARGOS 3.2 10:13:09 10° NE 10:18:36 89° SSE 10:24:01 10° SW
Meteor PRIRODA 3.8 10:15:26 10° ENE 10:19:05 52° N 10:22:44 10° WNW
Cosmos 1340 3.1 10:16:34 13° NW 10:19:49 58° WSW 10:23:34 10° SSE
Cosmos 2341 Rocket 4.0 10:13:50 10° W 10:20:05 63° N 10:26:23 10° E
Landsat 4 4.4 10:17:08 10° S 10:20:51 49° WSW 10:23:58 14° NW
Cosmos 1821 Rocket 4.0 10:15:01 10° WSW 10:21:11 68° NNW 10:27:28 10° ENE
CZ-4B R/B 3.1 10:16:18 10° ENE 10:21:38 77° NNW 10:27:02 10° W
Cosmos 1092 Rocket 4.4 10:16:30 14° NNW 10:21:56 60° WSW 10:28:06 10° S
SL-08 RB Rocket 3.8 10:17:13 10° NE 10:21:57 87° NW 10:26:39 10° SW
Cosmos 1626 3.6 10:20:09 15° NW 10:22:25 25° W 10:25:32 10° SW
Cosmos 1602 3.8 10:19:07 10° W 10:23:01 53° N 10:26:54 10° ENE
SWARM A 4.3 10:20:53 20° NNW 10:23:05 69° W 10:26:26 10° S
Spot 4 Rocket 4.0 10:17:54 10° ESE 10:23:07 86° NNE 10:28:19 10° NW
IRIDIUM 114 4.3 10:18:12 10° SSW 10:23:27 74° WNW 10:28:37 11° NNE
PAYLOAD B 4.2 10:18:21 10° ENE 10:23:55 77° N 10:29:26 10° W
Cosmos 1892 Rocket 4.5 10:20:59 15° NW 10:24:21 39° W 10:28:30 10° SSW
YAOGAN 1 2.5 10:20:25 10° NE 10:24:46 74° NNW 10:29:07 10° WSW
SPOT 3 Rocket 4.0 10:20:28 10° NE 10:25:41 65° ESE 10:30:51 10° SSW
Cosmos 1805 Rocket 3.6 10:22:01 10° WNW 10:26:27 57° N 10:30:53 10° E
CZ-2C R/B 2.7 10:23:10 10° ESE 10:27:03 68° NNE 10:30:52 10° NW
Cosmos 1892 2.7 10:23:46 13° NW 10:27:09 87° SW 10:31:00 10° SE
IRS-1C 4.2 10:21:48 10° SE 10:27:11 84° SW 10:32:35 10° NW
H-2A R/B 2.3 10:26:41 10° ENE 10:30:35 61° N 10:34:23 10° W
Resurs 1-4 Rocket 2.5 10:25:39 10° SSE 10:30:58 64° WSW 10:36:09 11° NW
ALOS 2 4.2 10:27:42 11° NNE 10:31:10 25° E 10:34:49 10° SE
Meteor 2-12 Rocket 4.4 10:26:11 10° W 10:32:20 65° N 10:38:29 10° E
Cosmos 2184 Rocket 4.1 10:26:01 10° WNW 10:32:25 66° NNE 10:38:48 10° E
Okean 1 Rocket 3.7 10:28:15 10° S 10:32:33 54° ESE 10:36:54 10° NNE
Cosmos 2026 Rocket 4.3 10:27:16 13° NNW 10:32:34 60° WSW 10:38:31 10° S
IRIDIUM 103 4.3 10:27:25 10° SW 10:32:40 71° WNW 10:37:46 11° NNE
Cosmos 1933 Rocket 3.6 10:28:35 10° W 10:33:02 58° NNW 10:37:29 10° ENE
Cosmos 1666 Rocket 3.6 10:30:02 10° W 10:34:22 56° N 10:38:45 10° E
Cosmos 1908 Rocket 3.5 10:30:07 10° SW 10:34:30 83° NW 10:38:53 10° NE
OBJECT-B 0.7 10:31:16 10° NE 10:34:33 84° NW 10:37:49 10° SW
CZ-4B R/B 3.6 10:29:49 10° SE 10:34:49 76° SW 10:39:42 10° NW
SJ-6B 2.7 10:31:23 10° NE 10:35:13 88° NW 10:39:00 10° SW
Okean 3 Rocket 3.6 10:30:55 10° NW 10:35:25 68° NNE 10:39:57 10° ESE
Cosmos 1825 2.1 10:32:17 12° NW 10:35:46 83° NE 10:39:35 10° SE
Cosmos 1602 Rocket 4.1 10:33:29 14° NW 10:37:09 51° WSW 10:41:22 10° S
Cosmos 1184 Rocket 2.7 10:34:11 10° WNW 10:37:28 80° NNE 10:40:44 10° ESE
Cosmos 1536 2.8 10:33:37 10° WSW 10:37:36 63° NNW 10:41:36 10° NE
Okean 2 Rocket 3.4 10:33:27 10° SSW 10:37:59 73° ESE 10:42:31 10° NE
ADEOS II 2.3 10:32:50 10° SE 10:38:08 75° SW 10:43:26 10° NW
SL-19 R/B 4.3 10:36:18 10° E 10:40:06 73° N 10:44:30 10° WNW
Meteor 1-29 3.6 10:36:57 10° SSE 10:40:21 51° WSW 10:43:14 14° NW
Meteor 1-14 Rocket 4.3 10:34:37 10° W 10:40:32 75° N 10:46:33 10° ENE
Cosmos 1455 Rocket 4.1 10:36:38 10° S 10:40:51 42° E 10:44:54 11° NNE
YAOGAN 6 2.8 10:37:34 10° ENE 10:41:00 45° N 10:44:23 10° WNW
H-2A R/B 1.9 10:36:26 10° NE 10:41:29 79° NNW 10:46:25 10° WSW
GP-B 3.6 10:38:48 17° N 10:42:01 46° ENE 10:46:20 10° SE
Cosmos 2016 Rocket 4.1 10:35:50 10° SW 10:42:12 90° NW 10:48:39 10° NE
Cosmos 1441 Rocket 3.1 10:38:50 10° NW 10:42:36 87° SW 10:46:24 10° SE
Cosmos 1782 Rocket 3.5 10:39:02 10° SW 10:43:26 89° NNW 10:47:50 10° NE
Cosmos 1743 2.7 10:39:32 10° WSW 10:43:26 68° NNW 10:47:20 10° NE
ERS-1 Rocket 3.7 10:38:31 10° NE 10:43:28 52° ESE 10:48:24 10° S
ALOS 2.2 10:39:01 10° E 10:43:41 66° NNE 10:48:21 10° WNW
USA 281 4.3 10:37:57 10° ENE 10:44:18 47° SE 10:50:38 10° SW
SL-16 R/B 4.1 10:42:20 13° NNE 10:45:37 19° NE 10:49:53 10° E
USA 186 1.6 10:42:57 11° NE 10:45:43 62° NW 10:48:49 10° WSW
Cosmos 1328 4.5 10:44:32 13° NW 10:47:56 49° WSW 10:51:51 10° S
Meteor 1-25 Rocket 4.2 10:42:23 10° W 10:47:59 73° N 10:53:40 10° E
FREGAT/IRIS 2.0 10:46:13 17° NE 10:48:00 66° NW 10:50:29 10° SW
Cosmos 1975 2.8 10:43:58 10° SW 10:48:05 79° NW 10:52:13 10° NE
Spot 2 4.5 10:43:05 10° E 10:48:13 71° N 10:53:22 10° W
AQUARIUS 4.2 10:43:47 10° ENE 10:48:15 62° N 10:52:43 10° W
Sich 1 Rocket 3.6 10:44:54 10° SW 10:49:20 84° SE 10:53:48 10° NE
CZ-2C R/B 2.8 10:44:45 10° ENE 10:49:30 71° NNW 10:54:20 10° WSW
Terra 2.6 10:45:05 10° NNE 10:49:44 48° ESE 10:54:23 10° S
IRIDIUM 106 4.4 10:45:51 10° SW 10:51:03 65° NW 10:56:02 11° NNE
CBERS-1 4.3 10:46:28 10° SSE 10:51:38 71° SW 10:56:47 10° NW
Iridium 51 4.4 10:50:13 16° NNW 10:53:06 54° NE 10:56:40 10° SE
SL-24 R/B 4.4 10:48:42 10° ENE 10:53:54 66° N 10:58:34 10° W
Cosmos 1805 3.6 10:50:20 10° SSW 10:54:13 65° ESE 10:58:01 11° NE
Meteor 1-31 Rocket 2.8 10:50:52 10° E 10:54:42 58° NNE 10:58:31 10° WNW
Cosmos 1633 Rocket 3.1 10:50:49 10° WNW 10:55:11 56° N 10:59:31 10° E
ARGOS Delta rocket 4.1 10:50:24 10° ESE 10:55:42 61° NNE 11:00:45 10° NW
IRS-1D 3.8 10:50:54 10° SSE 10:55:51 67° SW 11:00:52 10° NW
Cosmos 1745 Rocket 4.1 10:49:46 10° NW 10:56:13 83° NE 11:02:36 10° SE
Cosmos 1666 2.7 10:52:39 10° W 10:56:26 55° NNW 11:00:16 10° ENE
Cosmos 405 Rocket 2.7 10:52:33 10° WNW 10:56:28 72° NNE 11:00:27 10° ESE
Cosmos 1544 3.1 10:52:58 10° WSW 10:56:41 66° NNW 11:00:23 10° NE
ARIANE 5 R/B 3.0 10:52:33 10° NE 10:57:02 65° ESE 11:01:29 10° SSW
Cosmos 2061 Rocket 4.0 10:52:30 10° SW 10:58:46 86° NW 11:05:02 10° NE
SJ-12 3.9 10:55:42 10° E 10:59:44 59° NNE 11:03:45 10° WNW
Cosmos 1953 Rocket 4.0 10:55:45 11° NW 11:00:00 63° WSW 11:04:28 10° SSE
Cosmos 1076 Rocket 3.5 10:56:05 10° NW 11:00:28 88° SW 11:04:53 10° SE
CZ-4B R/B 3.6 10:57:32 10° E 11:01:12 59° NNE 11:04:49 10° WNW
IGS 5A 3.6 10:57:18 10° NE 11:01:31 76° SE 11:05:42 10° SSW
Cosmos 1500 3.3 10:58:05 10° W 11:01:50 52° N 11:05:36 10° ENE
Resurs 01 Rocket 1.7 10:57:20 10° NE 11:01:51 80° SE 11:06:20 10° SW
Cosmos 1455 4.2 10:59:31 10° ESE 11:01:53 16° ENE 11:03:44 12° NE
H-2A R/B 2.9 10:58:05 10° E 11:01:56 52° N 11:05:46 10° WNW
Cosmos 1153 Rocket 4.4 10:56:02 10° WSW 11:02:12 73° NNW 11:08:26 10° NE
SPOT 5 3.3 10:58:47 10° NE 11:03:14 55° ESE 11:07:53 10° SSW
CZ-2D R/B 3.4 10:59:57 10° ENE 11:03:46 55° NNW 11:07:36 10° W
Cosmos 2227 Rocket 4.5 11:02:26 10° WNW 11:04:33 12° W 11:06:40 10° WSW
Envisat 3.0 10:59:37 10° E 11:04:41 66° N 11:09:45 10° WNW
NOAA 6 4.0 10:59:39 10° E 11:04:47 70° N 11:09:54 10° W
PSLV R/B 3.8 11:00:59 10° E 11:04:53 56° N 11:08:42 10° WNW
Cosmos 1346 Rocket 3.4 11:01:00 10° NW 11:04:55 54° WSW 11:08:50 10° SSE
SL-08 R/B 4.5 11:00:10 10° W 11:06:21 63° N 11:12:28 10° ENE
SPOT 1/Viking Rocket 3.9 11:01:15 10° NE 11:06:30 67° ESE 11:11:44 10° SSW
Cosmos 2278 Rocket 4.0 11:01:37 10° W 11:06:43 35° SSW 11:11:50 10° SE
IRS-P3 4.4 11:01:35 10° SSE 11:06:56 71° SW 11:12:19 10° NW
Cosmos 2058 3.1 11:03:19 10° NW 11:07:31 77° SW 11:11:45 10° SSE
Cosmos 1802 Rocket 4.1 11:01:15 10° SW 11:07:43 81° NW 11:14:08 10° NE
Cosmos 2100 Rocket 3.9 11:01:46 10° SW 11:07:58 77° NW 11:14:11 10° NE
Cosmos 1605 Rocket 3.9 11:02:18 10° WSW 11:08:26 68° NNW 11:14:33 10° ENE
Cosmos 1869 Rocket 3.6 11:04:06 10° W 11:08:34 59° NNW 11:13:02 10° ENE
Cosmos 2366 rocket 4.0 11:02:30 10° W 11:08:43 63° N 11:14:53 10° E
CZ-2C R/B 2.2 11:05:27 10° ESE 11:10:08 82° NNE 11:14:44 10° NW
Cosmos 1825 Rocket 4.1 11:06:19 11° NW 11:10:19 52° WSW 11:14:33 10° S
IRS-1C Rocket 4.1 11:05:12 10° ENE 11:10:31 76° NNW 11:15:48 10° W
USA 245 4.0 11:05:14 10° NE 11:10:38 74° SE 11:14:57 10° SSW
Cosmos 1703 4.3 11:07:19 12° NW 11:10:40 38° W 11:14:22 10° SSW
AQUA 4.4 11:07:36 10° SSE 11:12:19 57° WSW 11:17:04 10° NW
Cosmos 1459 Rocket 4.0 11:06:02 10° SW 11:12:22 77° NW 11:18:47 10° NE
Cosmos 2218 Rocket 4.0 11:07:08 10° WNW 11:13:17 63° N 11:19:26 10° E
Cosmos 1864 Rocket 4.5 11:08:48 10° SW 11:15:01 84° NW 11:21:21 10° NE
MetOp-B 4.4 11:09:46 10° NE 11:15:10 74° SE 11:20:34 10° SW
SJ 16-02 3.2 11:12:12 10° WNW 11:16:04 29° SW 11:19:55 10° S
Meteor 2-17 Rocket 4.4 11:11:08 10° NW 11:17:16 77° NNE 11:23:26 10° ESE
NPP 4.3 11:14:18 10° S 11:19:36 53° WSW 11:24:54 10° NW
Cosmos 1939 Rocket 3.0 11:15:52 10° ENE 11:19:49 54° N 11:23:50 10° W
Cosmos 1500 Rocket 3.5 11:15:57 10° WNW 11:20:21 66° NNE 11:24:47 10° ESE
Cosmos 1709 Rocket 4.0 11:14:10 10° NW 11:20:34 81° NE 11:26:53 10° SE
CZ-2D R/B 2.9 11:15:43 10° S 11:20:57 50° WSW 11:26:17 10° NNW
Cosmos 2360 Rocket 4.4 11:19:36 10° ESE 11:21:08 11° E 11:22:41 10° ENE
Meteor 1-12 Rocket 4.5 11:15:47 10° SW 11:21:47 83° SE 11:27:52 10° NE
Cosmos 1300 Rocket 3.5 11:17:49 10° SW 11:22:11 89° NW 11:26:35 10° NE
USA 32 4.1 11:16:58 10° WSW 11:22:12 61° NW 11:27:26 10° NE
SJ-11-01 4.3 11:17:33 10° ENE 11:22:19 68° NNW 11:27:04 10° WSW
Cosmos 1733 Rocket 3.1 11:18:12 10° WSW 11:22:39 62° NNW 11:27:07 10° ENE
Cosmos 1758 3.9 11:19:31 10° S 11:23:25 51° ESE 11:26:46 13° NE
FENGYUN 3A 3.6 11:19:42 10° ESE 11:25:10 81° NNE 11:30:38 10° WNW
Cosmos 1470 3.3 11:21:54 10° SSW 11:25:49 57° ESE 11:29:14 13° NE
Cosmos 2239 Rocket 4.5 11:19:48 10° W 11:25:56 63° N 11:32:06 10° ENE
Sich 1 3.1 11:22:00 10° WNW 11:26:24 60° NNE 11:30:46 10° E
Cosmos 1386 Rocket 4.5 11:20:08 10° NW 11:26:25 89° NE 11:32:33 10° SE
CORIOLIS 4.1 11:21:01 10° E 11:26:29 72° N 11:31:57 10° W
Cosmos 2151 3.0 11:22:17 10° NW 11:26:34 88° SW 11:30:51 10° SE
Cosmos 1464 Rocket 4.1 11:20:29 10° SSW 11:26:46 77° ESE 11:32:48 11° NE
NOAA 12 4.1 11:21:39 10° E 11:26:57 70° N 11:32:13 10° W
Cosmos 1943 Rocket 3.9 11:22:16 10° WSW 11:27:18 37° S 11:32:22 10° ESE
CBERS 1 LM4 rocket 4.3 11:22:52 10° ESE 11:27:39 87° NNE 11:32:30 10° NW
Meteor 2-3 Rocket 3.9 11:22:43 10° NW 11:28:35 86° SW 11:34:26 10° SE
FengYun 1-2 T 4.2 11:23:40 10° E 11:29:09 72° N 11:34:40 10° W
CZ-4 R/B 1.5 11:25:52 10° ENE 11:29:58 59° NNW 11:34:09 10° W
IRS-1A Rocket 4.4 11:24:20 10° NE 11:30:06 89° SE 11:35:58 10° WSW
Cosmos 1535 Rocket 4.5 11:24:14 10° W 11:30:22 64° NNW 11:36:29 10° ENE
Cosmos 1862 3.3 11:26:38 10° NW 11:30:41 65° NNE 11:34:43 10° ESE
HJ-1C 3.5 11:27:31 10° ENE 11:30:44 48° NNW 11:33:56 10° W
Landsat 7 3.9 11:26:26 10° NE 11:31:15 82° SE 11:36:03 10° SW
Cosmos 2034 Rocket 4.2 11:25:24 10° SSW 11:31:37 73° ESE 11:37:35 12° NNE
Cosmos 1980 Rocket 4.2 11:27:41 10° SSE 11:31:45 21° ESE 11:35:51 10° ENE
CSL-04 Debris 4.2 11:26:42 10° ENE 11:32:13 79° NNW 11:37:41 10° WSW
SMAP 3.0 11:27:41 10° E 11:32:19 64° N 11:36:57 10° WNW
ADEOS 3.6 11:27:06 10° ESE 11:32:22 85° NNE 11:37:39 10° WNW
Helios 1A Rocket 2.9 11:28:39 10° ENE 11:32:41 64° NNW 11:36:45 10° W
Spot 2 Rocket 3.7 11:27:44 10° NE 11:32:52 74° SE 11:37:59 10° SW
Helios 1B rocket 3.8 11:29:11 10° SSW 11:32:55 33° W 11:36:39 10° NNW
SJ-6F 4.4 11:29:18 10° ESE 11:33:30 75° NNE 11:37:43 10° NW
Okean O Rocket 1.6 11:29:37 10° E 11:34:01 63° N 11:38:26 10° WNW
Cosmos 1953 3.1 11:31:28 10° S 11:35:24 47° ESE 11:38:40 14° NE
Cosmos 2173 Rocket 4.0 11:29:17 10° WSW 11:35:31 73° NNW 11:41:40 10° NE
Cosmos 2279 Rocket 4.4 11:30:16 10° S 11:36:16 54° E 11:41:32 14° NNE
Cosmos 1733 3.3 11:33:32 10° SW 11:37:26 80° SE 11:40:50 13° NE
CARTOSAT-1 3.7 11:33:30 12° NE 11:37:33 74° SE 11:41:55 10° SSW
ASTRO F (AKARI) 4.2 11:34:31 10° E 11:37:34 57° NNE 11:40:39 10° WNW
MOS 1-B 4.3 11:32:18 10° E 11:38:10 80° N 11:44:01 10° WNW
Cosmos 2151 Rocket 3.6 11:33:52 10° SW 11:38:18 89° NW 11:42:32 11° NE
PSLV R/B 3.6 11:33:55 10° SE 11:38:20 86° NE 11:42:46 10° NW
CZ-4B R/B 3.1 11:34:23 10° ESE 11:38:53 68° NNE 11:43:22 10° WNW
Meteor 2-11 Rocket 4.4 11:33:11 10° SW 11:39:18 85° NW 11:45:28 10° NE
CZ-2D R/B 3.6 11:35:25 10° SE 11:39:34 75° SW 11:43:38 10° NW
Cosmos 2098 Rocket 4.2 11:36:11 11° NNW 11:39:52 40° W 11:44:41 10° SSW
ARIANE 5 R/B 2.9 11:34:51 10° SSE 11:39:58 67° SW 11:45:11 10° NW
Meteor 2-9 Rocket 4.2 11:34:39 10° WSW 11:40:17 82° NNW 11:46:07 10° ENE
Meteor 1-15 Rocket 4.3 11:34:51 10° SW 11:40:33 79° SE 11:46:11 10° NE
Cosmos 2369 Rocket 3.9 11:35:23 10° WSW 11:40:37 38° S 11:45:49 10° ESE
MetOp-A 4.1 11:35:30 10° ENE 11:40:54 81° NNW 11:46:18 10° WSW
Cosmos 2154 Rocket 4.0 11:34:35 10° WNW 11:40:56 71° NNE 11:47:19 10° ESE
CZ-4B DEB 4.1 11:35:44 10° E 11:41:13 77° NNE 11:46:42 10° WNW
SJ-7 4.4 11:37:20 10° E 11:41:19 59° NNE 11:45:20 10° WNW
Cosmos 1470 Rocket 3.6 11:37:23 10° WNW 11:41:42 57° N 11:46:00 10° E
deb Chang Zheng 4 3.5 11:37:43 10° ESE 11:42:04 79° NNE 11:46:26 10° WNW
CSL-04 Rocket 3.6 11:36:49 10° ENE 11:42:07 78° NNW 11:47:27 10° WSW
Okean-O 2.6 11:38:05 10° ENE 11:42:31 64° N 11:46:56 10° W
METEOR-M 4.1 11:37:14 10° ESE 11:42:37 83° NNE 11:48:00 10° NW
Cosmos 1726 2.6 11:39:16 10° S 11:42:51 53° ESE 11:45:43 15° NE
Iridium 4 Rocket 3.0 11:38:46 10° S 11:42:59 83° ESE 11:46:20 17° NNE
Cosmos 1408 Rocket 3.5 11:39:26 10° NW 11:43:52 78° NE 11:48:15 10° SE
Cosmos 1934 Rocket 4.1 11:37:37 10° W 11:44:00 64° N 11:50:22 10° ENE
Cosmos 1766 Rocket 3.6 11:39:36 10° NW 11:44:06 87° NE 11:48:31 10° SE
Cosmos 1544 Rocket 4.0 11:40:27 10° S 11:44:50 56° ESE 11:48:29 14° NE
Meteor 1-20 Rocket 4.3 11:39:19 10° WNW 11:45:13 76° NNE 11:51:07 10° E
ASTEX 1 3.9 11:41:20 10° SSW 11:46:07 50° W 11:50:02 15° N
Cosmos 1743 Rocket 3.5 11:42:26 10° NW 11:46:58 72° NNE 11:51:27 10° ESE
Cosmos 1315 Rocket 4.5 11:44:25 10° SE 11:47:41 23° E 11:50:12 14° NE
Cosmos 1356 3.3 11:44:20 10° WNW 11:47:47 74° NNE 11:51:15 10° ESE
Ariane Rocket 3.0 11:43:20 10° ENE 11:48:26 82° NNW 11:53:32 10° WSW
Feng Yun 1-1 Rocket 4.1 11:43:17 10° E 11:48:48 76° N 11:54:14 10° W
IDEFIX/ARIANE 42P 2.9 11:44:35 10° SSE 11:49:47 67° WSW 11:55:00 10° NW
Cosmos 1633 2.5 11:46:22 10° NW 11:50:00 90° SW 11:53:38 10° SE
Resurs 1-3 3.6 11:45:41 10° NE 11:50:07 76° NNW 11:54:32 10° WSW
Cosmos 1295 Rocket 4.4 11:44:01 10° WNW 11:50:10 70° NNE 11:56:24 10° ESE
Cosmos 1408 3.2 11:46:36 10° NW 11:50:15 54° WSW 11:53:54 10° SSE
Cosmos 1484 Rocket 2.6 11:46:41 10° ESE 11:50:25 71° NE 11:54:09 10° NW
SL-16 R/B 4.3 11:47:06 10° SSE 11:50:38 17° ESE 11:54:10 10° ENE
Cosmos 1766 3.2 11:46:44 10° SW 11:50:38 87° SE 11:53:56 14° NE
Cosmos 1238 Rocket 2.8 11:47:24 10° WNW 11:50:38 46° N 11:54:26 10° ENE
SL-8 Rocket 4.0 11:44:32 10° WNW 11:50:44 66° NNE 11:57:00 10° E
Cosmos 2327 Rocket 4.4 11:44:41 10° NW 11:50:51 71° NNE 11:57:04 10° ESE
Cosmos 1340 Rocket 2.8 11:47:32 10° SW 11:51:29 84° SE 11:55:16 11° NE
CZ-4 R/B 4.5 11:47:48 10° ENE 11:51:53 57° N 11:55:57 10° W
Meteor PRIRODA 3.6 11:48:56 10° ESE 11:52:38 61° NNE 11:56:21 10° NW
PAYLOAD A 4.3 11:47:54 10° SE 11:53:23 82° SW 11:58:52 10° NW
Cosmos 2074 Rocket 4.0 11:47:13 10° NW 11:53:29 77° NE 11:59:47 10° ESE
Cosmos 1340 4.2 11:51:40 10° NW 11:55:00 30° W 11:58:20 10° SSW
Cosmos 1626 4.4 11:54:44 10° NW 11:56:41 14° WNW 11:58:36 10° W
